Observation data for Throckmorton on 02/14/2020      Previous  Date  Next       Current Mesonet Observations  Soil Data  Daily Summary Page  Observations in Plain Language
KTH1 140600Z 06005KT M03/M07 A3039 RMK A01 T10281068  RH  074%=      5-min Rain = 0
KTH1 140601Z 06004KT M03/M07 A3039 RMK A01 T10281068  RH  074%=      5-min Rain = 0
KTH1 140602Z 06004KT M03/M07 A3039 RMK A01 T10281068  RH  074%=      5-min Rain = 0
KTH1 140603Z 06004KT M03/M07 A3039 RMK A01 T10281068  RH  074%=      5-min Rain = 0
KTH1 140604Z 06004KT M03/M07 A3039 RMK A01 T10281068  RH  074%=      5-min Rain = 0
KTH1 140605Z 06004KT M03/M07 A3039 RMK A01 T10281067  RH  074%=      5-min Rain = 0
KTH1 140606Z 06004KT M03/M07 A304 RMK A01 T10281068  RH  074%=      5-min Rain = 0
KTH1 140607Z 06004KT M03/M07 A304 RMK A01 T10291068  RH  075%=      5-min Rain = 0
KTH1 140608Z 06004KT M03/M07 A3039 RMK A01 T10291068  RH  075%=      5-min Rain = 0
KTH1 140609Z 07004KT M03/M07 A3039 RMK A01 T10301068  RH  075%=      5-min Rain = 0
KTH1 140610Z 06003KT M03/M07 A3039 RMK A01 T10301069  RH  075%=      5-min Rain = 0
KTH1 140611Z 07003KT M03/M07 A3039 RMK A01 T10301068  RH  075%=      5-min Rain = 0
KTH1 140612Z 06003KT M03/M07 A3039 RMK A01 T10301068  RH  075%=      5-min Rain = 0
KTH1 140613Z 06004KT M03/M07 A3039 RMK A01 T10301068  RH  075%=      5-min Rain = 0
KTH1 140614Z 06003KT M03/M07 A3039 RMK A01 T10301068  RH  075%=      5-min Rain = 0
KTH1 140615Z 06004KT M03/M07 A3039 RMK A01 T10311068  RH  075%=      5-min Rain = 0
KTH1 140616Z 07004KT M03/M07 A3039 RMK A01 T10311068  RH  075%=      5-min Rain = 0
KTH1 140617Z 06003KT M03/M07 A3039 RMK A01 T10311069  RH  075%=      5-min Rain = 0
KTH1 140618Z 06003KT M03/M07 A3039 RMK A01 T10311069  RH  075%=      5-min Rain = 0
KTH1 140619Z 06003KT M03/M07 A3039 RMK A01 T10311068  RH  075%=      5-min Rain = 0
KTH1 140620Z 06003KT M03/M07 A3039 RMK A01 T10311068  RH  076%=      5-min Rain = 0
KTH1 140621Z 06003KT M03/M07 A3039 RMK A01 T10301067  RH  076%=      5-min Rain = 0
KTH1 140622Z 07004KT M03/M07 A3039 RMK A01 T10311067  RH  076%=      5-min Rain = 0
KTH1 140623Z 07003KT M03/M07 A3039 RMK A01 T10301067  RH  076%=      5-min Rain = 0
KTH1 140624Z 07003KT M03/M07 A3039 RMK A01 T10301068  RH  076%=      5-min Rain = 0
KTH1 140625Z 06003KT M03/M07 A3039 RMK A01 T10301067  RH  076%=      5-min Rain = 0
KTH1 140626Z 06003KT M03/M07 A3039 RMK A01 T10301067  RH  076%=      5-min Rain = 0
KTH1 140627Z 05004KT M03/M07 A3039 RMK A01 T10311067  RH  076%=      5-min Rain = 0
KTH1 140628Z 05004KT M03/M07 A3039 RMK A01 T10321067  RH  076%=      5-min Rain = 0
KTH1 140629Z 05004KT M03/M07 A3039 RMK A01 T10321067  RH  077%=      5-min Rain = 0
KTH1 140630Z 05004KT M03/M07 A3039 RMK A01 T10321067  RH  077%=      5-min Rain = 0
KTH1 140631Z 05004KT M03/M07 A3039 RMK A01 T10321067  RH  077%=      5-min Rain = 0
KTH1 140632Z 06004KT M03/M07 A3039 RMK A01 T10331067  RH  077%=      5-min Rain = 0
KTH1 140633Z 06004KT M03/M07 A3039 RMK A01 T10331067  RH  077%=      5-min Rain = 0
KTH1 140634Z 06005KT M03/M07 A3039 RMK A01 T10321066  RH  077%=      5-min Rain = 0
KTH1 140635Z 06005KT M03/M07 A3039 RMK A01 T10331067  RH  077%=      5-min Rain = 0
KTH1 140636Z 06005KT M03/M07 A3039 RMK A01 T10321067  RH  077%=      5-min Rain = 0
KTH1 140637Z 06005KT M03/M07 A3039 RMK A01 T10321067  RH  077%=      5-min Rain = 0
KTH1 140638Z 06005KT M03/M07 A3039 RMK A01 T10321067  RH  077%=      5-min Rain = 0
KTH1 140639Z 06005KT M03/M07 A3039 RMK A01 T10321067  RH  077%=      5-min Rain = 0
KTH1 140640Z 06004KT M03/M07 A3039 RMK A01 T10321067  RH  077%=      5-min Rain = 0
KTH1 140641Z 05005KT M03/M07 A3039 RMK A01 T10321067  RH  077%=      5-min Rain = 0
KTH1 140642Z 06004KT M03/M07 A3039 RMK A01 T10321067  RH  076%=      5-min Rain = 0
KTH1 140643Z 05005KT M03/M07 A3039 RMK A01 T10321067  RH  076%=      5-min Rain = 0
KTH1 140644Z 05005KT M03/M07 A3039 RMK A01 T10321067  RH  077%=      5-min Rain = 0
KTH1 140645Z 05005KT M03/M07 A3039 RMK A01 T10321067  RH  077%=      5-min Rain = 0
KTH1 140646Z 06004KT M03/M07 A3039 RMK A01 T10321067  RH  077%=      5-min Rain = 0
KTH1 140647Z 06004KT M03/M07 A3039 RMK A01 T10321067  RH  077%=      5-min Rain = 0
KTH1 140648Z 05004KT M03/M07 A3039 RMK A01 T10321067  RH  077%=      5-min Rain = 0
KTH1 140649Z 06004KT M03/M07 A3039 RMK A01 T10321067  RH  077%=      5-min Rain = 0
KTH1 140650Z 05004KT M03/M07 A3039 RMK A01 T10321067  RH  077%=      5-min Rain = 0
KTH1 140651Z 05003KT M03/M07 A3039 RMK A01 T10321068  RH  076%=      5-min Rain = 0
KTH1 140652Z 06004KT M03/M07 A3039 RMK A01 T10321068  RH  076%=      5-min Rain = 0
KTH1 140653Z 05004KT M03/M07 A3039 RMK A01 T10321067  RH  077%=      5-min Rain = 0
KTH1 140654Z 05004KT M03/M07 A3039 RMK A01 T10331068  RH  076%=      5-min Rain = 0
KTH1 140655Z 05004KT M03/M07 A3039 RMK A01 T10331069  RH  076%=      5-min Rain = 0
KTH1 140656Z 05004KT M03/M07 A3039 RMK A01 T10331069  RH  076%=      5-min Rain = 0
KTH1 140657Z 05004KT M03/M07 A3039 RMK A01 T10331069  RH  076%=      5-min Rain = 0
KTH1 140658Z 05004KT M03/M07 A3039 RMK A01 T10331069  RH  076%=      5-min Rain = 0
KTH1 140659Z 05004KT M03/M07 A3039 RMK A01 T10331069  RH  076%=      5-min Rain = 0
KTH1 140700Z 05004KT M03/M07 A3039 RMK A01 T10331069  RH  076%=      5-min Rain = 0
KTH1 140701Z 05004KT M03/M07 A3039 RMK A01 T10331068  RH  076%=      5-min Rain = 0
KTH1 140702Z 05004KT M03/M07 A3039 RMK A01 T10331068  RH  076%=      5-min Rain = 0
KTH1 140703Z 05004KT M03/M07 A3039 RMK A01 T10331068  RH  076%=      5-min Rain = 0
KTH1 140704Z 05004KT M03/M07 A3039 RMK A01 T10331069  RH  076%=      5-min Rain = 0
KTH1 140705Z 05004KT M03/M07 A3039 RMK A01 T10331069  RH  076%=      5-min Rain = 0
KTH1 140706Z 04004KT M03/M07 A304 RMK A01 T10331069  RH  076%=      5-min Rain = 0
KTH1 140707Z 04004KT M03/M07 A304 RMK A01 T10331069  RH  076%=      5-min Rain = 0
KTH1 140708Z 04004KT M03/M07 A304 RMK A01 T10331069  RH  076%=      5-min Rain = 0
KTH1 140709Z 04004KT M03/M07 A304 RMK A01 T10331069  RH  076%=      5-min Rain = 0
KTH1 140710Z 04004KT M03/M07 A304 RMK A01 T10331069  RH  076%=      5-min Rain = 0
KTH1 140711Z 05004KT M03/M07 A304 RMK A01 T10331069  RH  076%=      5-min Rain = 0
KTH1 140712Z 05004KT M03/M07 A304 RMK A01 T10331069  RH  076%=      5-min Rain = 0
KTH1 140713Z 05004KT M03/M07 A304 RMK A01 T10331069  RH  076%=      5-min Rain = 0
KTH1 140714Z 05003KT M03/M07 A304 RMK A01 T10331069  RH  076%=      5-min Rain = 0
KTH1 140715Z 04004KT M03/M07 A304 RMK A01 T10331069  RH  076%=      5-min Rain = 0
KTH1 140716Z 04004KT M03/M07 A304 RMK A01 T10331069  RH  077%=      5-min Rain = 0
KTH1 140717Z 04004KT M03/M07 A304 RMK A01 T10331068  RH  077%=      5-min Rain = 0
KTH1 140718Z 04004KT M03/M07 A304 RMK A01 T10331068  RH  077%=      5-min Rain = 0
KTH1 140719Z 04004KT M03/M07 A304 RMK A01 T10331068  RH  077%=      5-min Rain = 0
KTH1 140720Z 04005KT M03/M07 A304 RMK A01 T10331067  RH  077%=      5-min Rain = 0
KTH1 140721Z 04004KT M03/M07 A304 RMK A01 T10331067  RH  078%=      5-min Rain = 0
KTH1 140722Z 04004KT M03/M07 A304 RMK A01 T10331066  RH  078%=      5-min Rain = 0
KTH1 140723Z 05004KT M03/M07 A304 RMK A01 T10331067  RH  078%=      5-min Rain = 0
KTH1 140724Z 05004KT M03/M07 A304 RMK A01 T10331066  RH  078%=      5-min Rain = 0
KTH1 140725Z 05004KT M03/M07 A304 RMK A01 T10331066  RH  078%=      5-min Rain = 0
KTH1 140726Z 05004KT M03/M07 A304 RMK A01 T10331065  RH  079%=      5-min Rain = 0
KTH1 140727Z 05004KT M03/M07 A304 RMK A01 T10331065  RH  079%=      5-min Rain = 0
KTH1 140728Z 05004KT M03/M06 A304 RMK A01 T10331064  RH  079%=      5-min Rain = 0
KTH1 140729Z 05003KT M03/M06 A304 RMK A01 T10331063  RH  080%=      5-min Rain = 0
KTH1 140730Z 05003KT M03/M06 A304 RMK A01 T10331063  RH  080%=      5-min Rain = 0
KTH1 140731Z 05003KT M03/M06 A304 RMK A01 T10331063  RH  080%=      5-min Rain = 0
KTH1 140732Z 06003KT M03/M06 A304 RMK A01 T10341063  RH  080%=      5-min Rain = 0
KTH1 140733Z 06003KT M03/M06 A304 RMK A01 T10341063  RH  080%=      5-min Rain = 0
KTH1 140734Z 06003KT M03/M06 A304 RMK A01 T10341063  RH  080%=      5-min Rain = 0
KTH1 140735Z 06003KT M03/M06 A304 RMK A01 T10341062  RH  081%=      5-min Rain = 0
KTH1 140736Z 06003KT M03/M06 A304 RMK A01 T10341062  RH  081%=      5-min Rain = 0
KTH1 140737Z 05003KT M03/M06 A304 RMK A01 T10341062  RH  081%=      5-min Rain = 0
KTH1 140738Z 05003KT M03/M06 A304 RMK A01 T10341062  RH  081%=      5-min Rain = 0
KTH1 140739Z 06003KT M04/M06 A304 RMK A01 T10351063  RH  081%=      5-min Rain = 0
KTH1 140740Z 06003KT M04/M06 A304 RMK A01 T10351063  RH  081%=      5-min Rain = 0
KTH1 140741Z 06003KT M04/M06 A304 RMK A01 T10351063  RH  081%=      5-min Rain = 0
KTH1 140742Z 06003KT M04/M06 A304 RMK A01 T10351062  RH  081%=      5-min Rain = 0
KTH1 140743Z 06003KT M04/M06 A304 RMK A01 T10351063  RH  081%=      5-min Rain = 0
KTH1 140744Z 06002KT M04/M06 A304 RMK A01 T10361063  RH  081%=      5-min Rain = 0
KTH1 140745Z 05003KT M04/M06 A304 RMK A01 T10351063  RH  081%=      5-min Rain = 0
KTH1 140746Z 06003KT M04/M06 A304 RMK A01 T10361064  RH  081%=      5-min Rain = 0
KTH1 140747Z 06003KT M04/M06 A304 RMK A01 T10351064  RH  081%=      5-min Rain = 0
KTH1 140748Z 06003KT M04/M06 A304 RMK A01 T10361064  RH  081%=      5-min Rain = 0
KTH1 140749Z 07002KT M04/M06 A304 RMK A01 T10361063  RH  081%=      5-min Rain = 0
KTH1 140750Z 08003KT M04/M06 A304 RMK A01 T10361063  RH  082%=      5-min Rain = 0
KTH1 140751Z 08002KT M04/M06 A304 RMK A01 T10361063  RH  081%=      5-min Rain = 0
KTH1 140752Z 08002KT M04/M06 A304 RMK A01 T10361063  RH  081%=      5-min Rain = 0
KTH1 140753Z 08002KT M04/M06 A304 RMK A01 T10361063  RH  082%=      5-min Rain = 0
KTH1 140754Z 07002KT M04/M06 A304 RMK A01 T10361062  RH  082%=      5-min Rain = 0
KTH1 140755Z 06002KT M04/M06 A304 RMK A01 T10371063  RH  082%=      5-min Rain = 0
KTH1 140756Z 06002KT M04/M06 A304 RMK A01 T10371063  RH  082%=      5-min Rain = 0
KTH1 140757Z 06002KT M04/M06 A304 RMK A01 T10371062  RH  082%=      5-min Rain = 0
KTH1 140758Z 06002KT M04/M06 A304 RMK A01 T10371063  RH  082%=      5-min Rain = 0
KTH1 140759Z 07002KT M04/M06 A304 RMK A01 T10371063  RH  082%=      5-min Rain = 0
KTH1 140800Z 08002KT M04/M06 A304 RMK A01 T10381063  RH  083%=      5-min Rain = 0
KTH1 140801Z 08002KT M04/M06 A304 RMK A01 T10381062  RH  084%=      5-min Rain = 0
KTH1 140802Z 07002KT M04/M06 A304 RMK A01 T10381061  RH  084%=      5-min Rain = 0
KTH1 140803Z 08002KT M04/M06 A304 RMK A01 T10391062  RH  084%=      5-min Rain = 0
KTH1 140804Z 07002KT M04/M06 A304 RMK A01 T10391062  RH  084%=      5-min Rain = 0
KTH1 140805Z 07002KT M04/M06 A304 RMK A01 T10391062  RH  084%=      5-min Rain = 0
KTH1 140806Z 06002KT M04/M06 A304 RMK A01 T10391062  RH  084%=      5-min Rain = 0
KTH1 140807Z 07002KT M04/M06 A304 RMK A01 T10391062  RH  084%=      5-min Rain = 0
KTH1 140808Z 06002KT M04/M06 A304 RMK A01 T10391062  RH  084%=      5-min Rain = 0
KTH1 140809Z 06002KT M04/M06 A304 RMK A01 T10391062  RH  084%=      5-min Rain = 0
KTH1 140810Z 06002KT M04/M06 A304 RMK A01 T10381062  RH  084%=      5-min Rain = 0
KTH1 140811Z 06002KT M04/M06 A304 RMK A01 T10391063  RH  083%=      5-min Rain = 0
KTH1 140812Z 06002KT M04/M06 A304 RMK A01 T10381063  RH  083%=      5-min Rain = 0
KTH1 140813Z 06002KT M04/M06 A304 RMK A01 T10391063  RH  083%=      5-min Rain = 0
KTH1 140814Z 06002KT M04/M06 A304 RMK A01 T10391064  RH  083%=      5-min Rain = 0
KTH1 140815Z 06002KT M04/M06 A304 RMK A01 T10391064  RH  083%=      5-min Rain = 0
KTH1 140816Z 06003KT M04/M06 A304 RMK A01 T10391064  RH  083%=      5-min Rain = 0
KTH1 140817Z 05003KT M04/M06 A304 RMK A01 T10391064  RH  083%=      5-min Rain = 0
KTH1 140818Z 06003KT M04/M06 A304 RMK A01 T10391064  RH  083%=      5-min Rain = 0
KTH1 140819Z 05003KT M04/M06 A304 RMK A01 T10391064  RH  083%=      5-min Rain = 0
KTH1 140820Z 06003KT M04/M06 A304 RMK A01 T10391064  RH  083%=      5-min Rain = 0
KTH1 140821Z 06003KT M04/M06 A304 RMK A01 T10391064  RH  083%=      5-min Rain = 0
KTH1 140822Z 05003KT M04/M06 A304 RMK A01 T10401064  RH  083%=      5-min Rain = 0
KTH1 140823Z 04003KT M04/M06 A304 RMK A01 T10401064  RH  083%=      5-min Rain = 0
KTH1 140824Z 04003KT M04/M06 A304 RMK A01 T10401064  RH  084%=      5-min Rain = 0
KTH1 140825Z 04003KT M04/M06 A304 RMK A01 T10401064  RH  083%=      5-min Rain = 0
KTH1 140826Z 04003KT M04/M06 A304 RMK A01 T10401064  RH  083%=      5-min Rain = 0
KTH1 140827Z 04003KT M04/M07 A304 RMK A01 T10401065  RH  083%=      5-min Rain = 0
KTH1 140828Z 05003KT M04/M07 A304 RMK A01 T10401065  RH  083%=      5-min Rain = 0
KTH1 140829Z 04003KT M04/M06 A304 RMK A01 T10391064  RH  083%=      5-min Rain = 0
KTH1 140830Z 04003KT M04/M07 A304 RMK A01 T10401065  RH  083%=      5-min Rain = 0
KTH1 140831Z 04003KT M04/M07 A304 RMK A01 T10401065  RH  083%=      5-min Rain = 0
KTH1 140832Z 04003KT M04/M06 A304 RMK A01 T10401064  RH  084%=      5-min Rain = 0
KTH1 140833Z 04004KT M04/M06 A304 RMK A01 T10401064  RH  084%=      5-min Rain = 0
KTH1 140834Z 04003KT M04/M06 A304 RMK A01 T10401064  RH  084%=      5-min Rain = 0
KTH1 140835Z 04004KT M04/M06 A304 RMK A01 T10401064  RH  083%=      5-min Rain = 0
KTH1 140836Z 04004KT M04/M06 A304 RMK A01 T10401064  RH  084%=      5-min Rain = 0
KTH1 140837Z 04004KT M04/M06 A304 RMK A01 T10401064  RH  083%=      5-min Rain = 0
KTH1 140838Z 04004KT M04/M06 A304 RMK A01 T10401064  RH  083%=      5-min Rain = 0
KTH1 140839Z 04004KT M04/M06 A304 RMK A01 T10391064  RH  083%=      5-min Rain = 0
KTH1 140840Z 04004KT M04/M06 A304 RMK A01 T10391064  RH  083%=      5-min Rain = 0
KTH1 140841Z 04004KT M04/M06 A304 RMK A01 T10391064  RH  083%=      5-min Rain = 0
KTH1 140842Z 04004KT M04/M06 A304 RMK A01 T10391064  RH  083%=      5-min Rain = 0
KTH1 140843Z 04004KT M04/M07 A304 RMK A01 T10391065  RH  082%=      5-min Rain = 0
KTH1 140844Z 04004KT M04/M07 A304 RMK A01 T10391065  RH  082%=      5-min Rain = 0
KTH1 140845Z 05004KT M04/M07 A304 RMK A01 T10391065  RH  082%=      5-min Rain = 0
KTH1 140846Z 04004KT M04/M07 A304 RMK A01 T10391065  RH  082%=      5-min Rain = 0
KTH1 140847Z 04004KT M04/M07 A304 RMK A01 T10391065  RH  082%=      5-min Rain = 0
KTH1 140848Z 04004KT M04/M07 A304 RMK A01 T10381065  RH  082%=      5-min Rain = 0
KTH1 140849Z 04003KT M04/M07 A3039 RMK A01 T10381066  RH  081%=      5-min Rain = 0
KTH1 140850Z 05004KT M04/M07 A3039 RMK A01 T10381066  RH  081%=      5-min Rain = 0
KTH1 140851Z 05004KT M04/M07 A3039 RMK A01 T10381066  RH  081%=      5-min Rain = 0
KTH1 140852Z 05004KT M04/M07 A3039 RMK A01 T10371066  RH  081%=      5-min Rain = 0
KTH1 140853Z 05004KT M04/M07 A3039 RMK A01 T10371066  RH  081%=      5-min Rain = 0
KTH1 140854Z 05004KT M04/M07 A3039 RMK A01 T10371065  RH  081%=      5-min Rain = 0
KTH1 140855Z 06004KT M04/M07 A3039 RMK A01 T10381065  RH  081%=      5-min Rain = 0
KTH1 140856Z 06004KT M04/M07 A3039 RMK A01 T10371065  RH  081%=      5-min Rain = 0
KTH1 140857Z 05003KT M04/M06 A3039 RMK A01 T10381064  RH  082%=      5-min Rain = 0
KTH1 140858Z 06003KT M04/M06 A3039 RMK A01 T10371064  RH  082%=      5-min Rain = 0
KTH1 140859Z 05003KT M04/M06 A3039 RMK A01 T10381064  RH  082%=      5-min Rain = 0
KTH1 140900Z 04003KT M04/M06 A3039 RMK A01 T10381064  RH  082%=      5-min Rain = 0
KTH1 140901Z 05003KT M04/M06 A3039 RMK A01 T10381064  RH  082%=      5-min Rain = 0
KTH1 140902Z 04003KT M04/M06 A3039 RMK A01 T10381064  RH  082%=      5-min Rain = 0
KTH1 140903Z 05003KT M04/M06 A3039 RMK A01 T10381064  RH  082%=      5-min Rain = 0
KTH1 140904Z 05003KT M04/M07 A3039 RMK A01 T10381065  RH  082%=      5-min Rain = 0
KTH1 140905Z 05003KT M04/M07 A3039 RMK A01 T10381065  RH  082%=      5-min Rain = 0
KTH1 140906Z 05003KT M04/M07 A3039 RMK A01 T10381065  RH  082%=      5-min Rain = 0
KTH1 140907Z 05003KT M04/M07 A3039 RMK A01 T10381065  RH  082%=      5-min Rain = 0
KTH1 140908Z 05003KT M04/M07 A3039 RMK A01 T10381065  RH  081%=      5-min Rain = 0
KTH1 140909Z 05003KT M04/M07 A304 RMK A01 T10381065  RH  081%=      5-min Rain = 0
KTH1 140910Z 05003KT M04/M07 A304 RMK A01 T10381065  RH  081%=      5-min Rain = 0
KTH1 140911Z 05003KT M04/M07 A304 RMK A01 T10381065  RH  081%=      5-min Rain = 0
KTH1 140912Z 05003KT M04/M07 A304 RMK A01 T10381065  RH  081%=      5-min Rain = 0
KTH1 140913Z 05003KT M04/M07 A304 RMK A01 T10381065  RH  082%=      5-min Rain = 0
KTH1 140914Z 06002KT M04/M07 A304 RMK A01 T10381065  RH  082%=      5-min Rain = 0
KTH1 140915Z 06002KT M04/M06 A304 RMK A01 T10381064  RH  082%=      5-min Rain = 0
KTH1 140916Z 06002KT M04/M06 A304 RMK A01 T10381063  RH  083%=      5-min Rain = 0
KTH1 140917Z 05002KT M04/M06 A304 RMK A01 T10381063  RH  083%=      5-min Rain = 0
KTH1 140918Z 04003KT M04/M06 A304 RMK A01 T10381063  RH  083%=      5-min Rain = 0
KTH1 140919Z 04003KT M04/M06 A304 RMK A01 T10381063  RH  083%=      5-min Rain = 0
KTH1 140920Z 04003KT M04/M06 A304 RMK A01 T10381064  RH  083%=      5-min Rain = 0
KTH1 140921Z 05002KT M04/M06 A304 RMK A01 T10381064  RH  082%=      5-min Rain = 0
KTH1 140922Z 05003KT M04/M06 A304 RMK A01 T10391064  RH  082%=      5-min Rain = 0
KTH1 140923Z 05003KT M04/M07 A304 RMK A01 T10391065  RH  082%=      5-min Rain = 0
KTH1 140924Z 05003KT M04/M07 A304 RMK A01 T10391065  RH  082%=      5-min Rain = 0
KTH1 140925Z 04003KT M04/M07 A304 RMK A01 T10391065  RH  082%=      5-min Rain = 0
KTH1 140926Z 04003KT M04/M07 A304 RMK A01 T10391065  RH  082%=      5-min Rain = 0
KTH1 140927Z 04004KT M04/M07 A304 RMK A01 T10391065  RH  082%=      5-min Rain = 0
KTH1 140928Z 04003KT M04/M07 A3039 RMK A01 T10391065  RH  082%=      5-min Rain = 0
KTH1 140929Z 04003KT M04/M07 A3039 RMK A01 T10391065  RH  082%=      5-min Rain = 0
KTH1 140930Z 04004KT M04/M07 A3039 RMK A01 T10391065  RH  082%=      5-min Rain = 0
KTH1 140931Z 04003KT M04/M07 A3039 RMK A01 T10391065  RH  082%=      5-min Rain = 0
KTH1 140932Z 04003KT M04/M07 A3039 RMK A01 T10391065  RH  082%=      5-min Rain = 0
KTH1 140933Z 04003KT M04/M07 A3039 RMK A01 T10391066  RH  082%=      5-min Rain = 0
KTH1 140934Z 04003KT M04/M07 A3039 RMK A01 T10391065  RH  082%=      5-min Rain = 0
KTH1 140935Z 04003KT M04/M07 A3039 RMK A01 T10401065  RH  083%=      5-min Rain = 0
KTH1 140936Z 04003KT M04/M07 A3039 RMK A01 T10401066  RH  083%=      5-min Rain = 0
KTH1 140937Z 04003KT M04/M07 A3039 RMK A01 T10401065  RH  083%=      5-min Rain = 0
KTH1 140938Z 04003KT M04/M07 A3039 RMK A01 T10401065  RH  083%=      5-min Rain = 0
KTH1 140939Z 04003KT M04/M07 A3039 RMK A01 T10411065  RH  083%=      5-min Rain = 0
KTH1 140940Z 04003KT M04/M07 A304 RMK A01 T10411065  RH  083%=      5-min Rain = 0
KTH1 140941Z 04003KT M04/M07 A304 RMK A01 T10411065  RH  083%=      5-min Rain = 0
KTH1 140942Z 04003KT M04/M07 A3039 RMK A01 T10411066  RH  083%=      5-min Rain = 0
KTH1 140943Z 04003KT M04/M07 A3039 RMK A01 T10411066  RH  083%=      5-min Rain = 0
KTH1 140944Z 04003KT M04/M07 A3039 RMK A01 T10411066  RH  083%=      5-min Rain = 0
KTH1 140945Z 04003KT M04/M07 A3039 RMK A01 T10411066  RH  083%=      5-min Rain = 0
KTH1 140946Z 04003KT M04/M07 A3039 RMK A01 T10411066  RH  083%=      5-min Rain = 0
KTH1 140947Z 04003KT M04/M07 A304 RMK A01 T10411066  RH  083%=      5-min Rain = 0
KTH1 140948Z 04003KT M04/M07 A304 RMK A01 T10411067  RH  083%=      5-min Rain = 0
KTH1 140949Z 03003KT M04/M07 A304 RMK A01 T10411067  RH  082%=      5-min Rain = 0
KTH1 140950Z 04004KT M04/M07 A3039 RMK A01 T10411067  RH  082%=      5-min Rain = 0
KTH1 140951Z 04003KT M04/M07 A3039 RMK A01 T10401067  RH  082%=      5-min Rain = 0
KTH1 140952Z 04004KT M04/M07 A304 RMK A01 T10401067  RH  082%=      5-min Rain = 0
KTH1 140953Z 04004KT M04/M07 A304 RMK A01 T10401067  RH  082%=      5-min Rain = 0
KTH1 140954Z 04004KT M04/M07 A3039 RMK A01 T10401067  RH  081%=      5-min Rain = 0
KTH1 140955Z 04004KT M04/M07 A3039 RMK A01 T10401068  RH  081%=      5-min Rain = 0
KTH1 140956Z 04004KT M04/M07 A3039 RMK A01 T10401068  RH  081%=      5-min Rain = 0
KTH1 140957Z 04004KT M04/M07 A3039 RMK A01 T10391068  RH  081%=      5-min Rain = 0
KTH1 140958Z 04003KT M04/M07 A3039 RMK A01 T10391068  RH  081%=      5-min Rain = 0
KTH1 140959Z 04003KT M04/M07 A304 RMK A01 T10391068  RH  081%=      5-min Rain = 0
KTH1 141000Z 04002KT M04/M07 A304 RMK A01 T10391067  RH  081%=      5-min Rain = 0
KTH1 141001Z 04002KT M04/M07 A304 RMK A01 T10391067  RH  081%=      5-min Rain = 0
KTH1 141002Z 05003KT M04/M07 A304 RMK A01 T10391068  RH  081%=      5-min Rain = 0
KTH1 141003Z 05003KT M04/M07 A304 RMK A01 T10391068  RH  081%=      5-min Rain = 0
KTH1 141004Z 04003KT M04/M07 A304 RMK A01 T10391068  RH  081%=      5-min Rain = 0
KTH1 141005Z 04003KT M04/M07 A304 RMK A01 T10391068  RH  081%=      5-min Rain = 0
KTH1 141006Z 05002KT M04/M07 A304 RMK A01 T10391067  RH  081%=      5-min Rain = 0
KTH1 141007Z 04002KT M04/M07 A304 RMK A01 T10391067  RH  081%=      5-min Rain = 0
KTH1 141008Z 05003KT M04/M07 A304 RMK A01 T10391066  RH  081%=      5-min Rain = 0
KTH1 141009Z 04003KT M04/M07 A304 RMK A01 T10391067  RH  081%=      5-min Rain = 0
KTH1 141010Z 05002KT M04/M07 A304 RMK A01 T10391067  RH  081%=      5-min Rain = 0
KTH1 141011Z 05003KT M04/M07 A304 RMK A01 T10381067  RH  081%=      5-min Rain = 0
KTH1 141012Z 05003KT M04/M07 A304 RMK A01 T10391066  RH  081%=      5-min Rain = 0
KTH1 141013Z 05003KT M04/M07 A304 RMK A01 T10391066  RH  081%=      5-min Rain = 0
KTH1 141014Z 05003KT M04/M07 A304 RMK A01 T10391066  RH  081%=      5-min Rain = 0
KTH1 141015Z 06003KT M04/M07 A304 RMK A01 T10401066  RH  082%=      5-min Rain = 0
KTH1 141016Z 06002KT M04/M07 A304 RMK A01 T10401066  RH  082%=      5-min Rain = 0
KTH1 141017Z 05003KT M04/M07 A304 RMK A01 T10401066  RH  082%=      5-min Rain = 0
KTH1 141018Z 05002KT M04/M07 A304 RMK A01 T10391066  RH  082%=      5-min Rain = 0
KTH1 141019Z 05003KT M04/M07 A304 RMK A01 T10391066  RH  081%=      5-min Rain = 0
KTH1 141020Z 05002KT M04/M07 A304 RMK A01 T10391066  RH  082%=      5-min Rain = 0
KTH1 141021Z 05002KT M04/M07 A304 RMK A01 T10401066  RH  082%=      5-min Rain = 0
KTH1 141022Z 06002KT M04/M07 A304 RMK A01 T10401066  RH  082%=      5-min Rain = 0
KTH1 141023Z 06002KT M04/M07 A304 RMK A01 T10401066  RH  082%=      5-min Rain = 0
KTH1 141024Z 06002KT M04/M07 A304 RMK A01 T10401066  RH  082%=      5-min Rain = 0
KTH1 141025Z 06002KT M04/M07 A304 RMK A01 T10411066  RH  083%=      5-min Rain = 0
KTH1 141026Z 05002KT M04/M07 A304 RMK A01 T10401066  RH  083%=      5-min Rain = 0
KTH1 141027Z 06002KT M04/M07 A304 RMK A01 T10411066  RH  083%=      5-min Rain = 0
KTH1 141028Z 06003KT M04/M07 A304 RMK A01 T10411065  RH  083%=      5-min Rain = 0
KTH1 141029Z 05003KT M04/M07 A304 RMK A01 T10411065  RH  083%=      5-min Rain = 0
KTH1 141030Z 06002KT M04/M07 A304 RMK A01 T10411066  RH  083%=      5-min Rain = 0
KTH1 141031Z 05003KT M04/M07 A304 RMK A01 T10411066  RH  083%=      5-min Rain = 0
KTH1 141032Z 06003KT M04/M07 A304 RMK A01 T10411067  RH  082%=      5-min Rain = 0
KTH1 141033Z 06003KT M04/M07 A304 RMK A01 T10411066  RH  083%=      5-min Rain = 0
KTH1 141034Z 06003KT M04/M07 A304 RMK A01 T10411066  RH  083%=      5-min Rain = 0
KTH1 141035Z 06003KT M04/M07 A304 RMK A01 T10411066  RH  083%=      5-min Rain = 0
KTH1 141036Z 06003KT M04/M07 A304 RMK A01 T10411066  RH  083%=      5-min Rain = 0
KTH1 141037Z 06003KT M04/M07 A304 RMK A01 T10411065  RH  083%=      5-min Rain = 0
KTH1 141038Z 06003KT M04/M07 A304 RMK A01 T10411065  RH  084%=      5-min Rain = 0
KTH1 141039Z 06003KT M04/M07 A304 RMK A01 T10421065  RH  084%=      5-min Rain = 0
KTH1 141040Z 06003KT M04/M07 A304 RMK A01 T10421065  RH  084%=      5-min Rain = 0
KTH1 141041Z 06003KT M04/M07 A304 RMK A01 T10421065  RH  084%=      5-min Rain = 0
KTH1 141042Z 06003KT M04/M07 A304 RMK A01 T10431065  RH  084%=      5-min Rain = 0
KTH1 141043Z 06003KT M04/M07 A3041 RMK A01 T10431065  RH  084%=      5-min Rain = 0
KTH1 141044Z 06003KT M04/M07 A3041 RMK A01 T10431065  RH  085%=      5-min Rain = 0
KTH1 141045Z 06003KT M04/M07 A3041 RMK A01 T10431065  RH  085%=      5-min Rain = 0
KTH1 141046Z 06002KT M04/M07 A3041 RMK A01 T10431066  RH  085%=      5-min Rain = 0
KTH1 141047Z 05003KT M04/M07 A3041 RMK A01 T10441066  RH  085%=      5-min Rain = 0
KTH1 141048Z 05003KT M04/M07 A3041 RMK A01 T10441066  RH  085%=      5-min Rain = 0
KTH1 141049Z 05002KT M04/M07 A3041 RMK A01 T10441066  RH  084%=      5-min Rain = 0
KTH1 141050Z 04002KT M04/M07 A3041 RMK A01 T10441066  RH  084%=      5-min Rain = 0
KTH1 141051Z 04002KT M04/M07 A3041 RMK A01 T10441067  RH  084%=      5-min Rain = 0
KTH1 141052Z 04002KT M04/M07 A3041 RMK A01 T10441067  RH  084%=      5-min Rain = 0
KTH1 141053Z 04002KT M05/M07 A3041 RMK A01 T10451067  RH  084%=      5-min Rain = 0
KTH1 141054Z 04002KT M04/M07 A3041 RMK A01 T10441067  RH  084%=      5-min Rain = 0
KTH1 141055Z 03002KT M04/M07 A3041 RMK A01 T10441067  RH  085%=      5-min Rain = 0
KTH1 141056Z 03002KT M04/M07 A3041 RMK A01 T10441066  RH  085%=      5-min Rain = 0
KTH1 141057Z 01001KT M04/M07 A3041 RMK A01 T10441067  RH  084%=      5-min Rain = 0
KTH1 141058Z 36001KT M04/M07 A3042 RMK A01 T10441067  RH  084%=      5-min Rain = 0
KTH1 141059Z 34001KT M04/M07 A3042 RMK A01 T10441067  RH  084%=      5-min Rain = 0
KTH1 141100Z 32002KT M04/M07 A3042 RMK A01 T10441067  RH  084%=      5-min Rain = 0
KTH1 141101Z 32001KT M04/M07 A3042 RMK A01 T10441066  RH  085%=      5-min Rain = 0
KTH1 141102Z 33001KT M04/M07 A3042 RMK A01 T10441065  RH  085%=      5-min Rain = 0
KTH1 141103Z 33002KT M04/M06 A3042 RMK A01 T10441064  RH  085%=      5-min Rain = 0
KTH1 141104Z 32002KT M04/M07 A3042 RMK A01 T10441065  RH  085%=      5-min Rain = 0
KTH1 141105Z 32002KT M04/M07 A3042 RMK A01 T10431065  RH  085%=      5-min Rain = 0
KTH1 141106Z 33002KT M04/M07 A3042 RMK A01 T10431065  RH  085%=      5-min Rain = 0
KTH1 141107Z 33002KT M04/M06 A3042 RMK A01 T10431064  RH  085%=      5-min Rain = 0
KTH1 141108Z 32001KT M04/M06 A3042 RMK A01 T10441064  RH  086%=      5-min Rain = 0
KTH1 141109Z 33002KT M04/M06 A3042 RMK A01 T10431064  RH  086%=      5-min Rain = 0
KTH1 141110Z 34002KT M04/M07 A3042 RMK A01 T10441065  RH  085%=      5-min Rain = 0
KTH1 141111Z 34002KT M04/M07 A3042 RMK A01 T10441067  RH  085%=      5-min Rain = 0
KTH1 141112Z 34002KT M05/M07 A3042 RMK A01 T10451068  RH  084%=      5-min Rain = 0
KTH1 141113Z 35002KT M05/M07 A3042 RMK A01 T10461069  RH  084%=      5-min Rain = 0
KTH1 141114Z 35002KT M05/M07 A3042 RMK A01 T10471069  RH  084%=      5-min Rain = 0
KTH1 141115Z 36001KT M05/M07 A3042 RMK A01 T10481069  RH  085%=      5-min Rain = 0
KTH1 141116Z 35002KT M05/M07 A3042 RMK A01 T10481069  RH  085%=      5-min Rain = 0
KTH1 141117Z 35002KT M05/M07 A3042 RMK A01 T10481069  RH  086%=      5-min Rain = 0
KTH1 141118Z 36002KT M05/M07 A3042 RMK A01 T10491069  RH  086%=      5-min Rain = 0
KTH1 141119Z 00003KT M05/M07 A3042 RMK A01 T10491069  RH  086%=      5-min Rain = 0
KTH1 141120Z 36002KT M05/M07 A3042 RMK A01 T10501069  RH  086%=      5-min Rain = 0
KTH1 141121Z 35002KT M05/M07 A3042 RMK A01 T10501069  RH  087%=      5-min Rain = 0
KTH1 141122Z 35002KT M05/M07 A3042 RMK A01 T10501069  RH  087%=      5-min Rain = 0
KTH1 141123Z 35003KT M05/M07 A3042 RMK A01 T10501068  RH  087%=      5-min Rain = 0
KTH1 141124Z 34003KT M05/M07 A3042 RMK A01 T10501068  RH  087%=      5-min Rain = 0
KTH1 141125Z 34002KT M05/M07 A3042 RMK A01 T10501067  RH  088%=      5-min Rain = 0
KTH1 141126Z 34002KT M05/M07 A3042 RMK A01 T10511068  RH  088%=      5-min Rain = 0
KTH1 141127Z 34002KT M05/M07 A3042 RMK A01 T10511068  RH  088%=      5-min Rain = 0
KTH1 141128Z 35002KT M05/M07 A3042 RMK A01 T10511068  RH  088%=      5-min Rain = 0
KTH1 141129Z 35002KT M05/M07 A3042 RMK A01 T10521068  RH  088%=      5-min Rain = 0
KTH1 141130Z 35003KT M05/M07 A3042 RMK A01 T10521068  RH  089%=      5-min Rain = 0
KTH1 141131Z 35003KT M05/M07 A3042 RMK A01 T10521068  RH  089%=      5-min Rain = 0
KTH1 141132Z 35003KT M05/M07 A3042 RMK A01 T10531068  RH  089%=      5-min Rain = 0
KTH1 141133Z 36003KT M05/M07 A3042 RMK A01 T10531068  RH  089%=      5-min Rain = 0
KTH1 141134Z 00003KT M05/M07 A3042 RMK A01 T10541069  RH  089%=      5-min Rain = 0
KTH1 141135Z 00003KT M05/M07 A3042 RMK A01 T10541069  RH  090%=      5-min Rain = 0
KTH1 141136Z 00003KT M05/M07 A3042 RMK A01 T10541068  RH  090%=      5-min Rain = 0
KTH1 141137Z 01003KT M06/M07 A3042 RMK A01 T10551069  RH  090%=      5-min Rain = 0
KTH1 141138Z 00003KT M06/M07 A3042 RMK A01 T10551069  RH  090%=      5-min Rain = 0
KTH1 141139Z 00003KT M06/M07 A3042 RMK A01 T10551069  RH  090%=      5-min Rain = 0
KTH1 141140Z 00003KT M06/M07 A3042 RMK A01 T10551069  RH  090%=      5-min Rain = 0
KTH1 141141Z 36003KT M06/M07 A3042 RMK A01 T10551068  RH  090%=      5-min Rain = 0
KTH1 141142Z 36003KT M06/M07 A3042 RMK A01 T10551068  RH  090%=      5-min Rain = 0
KTH1 141143Z 00003KT M06/M07 A3042 RMK A01 T10551068  RH  090%=      5-min Rain = 0
KTH1 141144Z 35003KT M06/M07 A3042 RMK A01 T10551069  RH  090%=      5-min Rain = 0
KTH1 141145Z 35002KT M06/M07 A3042 RMK A01 T10551069  RH  090%=      5-min Rain = 0
KTH1 141146Z 00003KT M06/M07 A3042 RMK A01 T10551069  RH  090%=      5-min Rain = 0
KTH1 141147Z 00003KT M06/M07 A3042 RMK A01 T10551069  RH  090%=      5-min Rain = 0
KTH1 141148Z 35003KT M06/M07 A3042 RMK A01 T10551069  RH  090%=      5-min Rain = 0
KTH1 141149Z 00003KT M06/M07 A3042 RMK A01 T10551069  RH  090%=      5-min Rain = 0
KTH1 141150Z 00003KT M06/M07 A3042 RMK A01 T10551069  RH  090%=      5-min Rain = 0
KTH1 141151Z 00003KT M06/M07 A3042 RMK A01 T10551069  RH  089%=      5-min Rain = 0
KTH1 141152Z 36003KT M06/M07 A3042 RMK A01 T10551070  RH  089%=      5-min Rain = 0
KTH1 141153Z 01003KT M06/M07 A3042 RMK A01 T10551070  RH  089%=      5-min Rain = 0
KTH1 141154Z 01003KT M06/M07 A3042 RMK A01 T10561071  RH  089%=      5-min Rain = 0
KTH1 141155Z 00003KT M06/M07 A3042 RMK A01 T10561071  RH  089%=      5-min Rain = 0
KTH1 141156Z 00003KT M06/M07 A3042 RMK A01 T10561071  RH  089%=      5-min Rain = 0
KTH1 141157Z 00002KT M06/M07 A3042 RMK A01 T10561071  RH  089%=      5-min Rain = 0
KTH1 141158Z 01002KT M06/M07 A3042 RMK A01 T10561071  RH  089%=      5-min Rain = 0
KTH1 141159Z 00002KT M06/M07 A3042 RMK A01 T10561071  RH  089%=      5-min Rain = 0
KTH1 141200Z 00002KT M06/M07 A3042 RMK A01 T10561071  RH  089%=      5-min Rain = 0
KTH1 141201Z 00002KT M06/M07 A3042 RMK A01 T10561071  RH  089%=      5-min Rain = 0
KTH1 141202Z 00002KT M06/M07 A3042 RMK A01 T10561071  RH  089%=      5-min Rain = 0
KTH1 141203Z 36002KT M06/M07 A3042 RMK A01 T10571071  RH  089%=      5-min Rain = 0
KTH1 141204Z 00002KT M06/M07 A3042 RMK A01 T10571071  RH  090%=      5-min Rain = 0
KTH1 141205Z 35002KT M06/M07 A3042 RMK A01 T10571071  RH  090%=      5-min Rain = 0
KTH1 141206Z 36002KT M06/M07 A3042 RMK A01 T10561070  RH  090%=      5-min Rain = 0
KTH1 141207Z 35002KT M06/M07 A3042 RMK A01 T10571070  RH  090%=      5-min Rain = 0
KTH1 141208Z 35002KT M06/M07 A3042 RMK A01 T10571070  RH  090%=      5-min Rain = 0
KTH1 141209Z 35002KT M06/M07 A3042 RMK A01 T10571070  RH  090%=      5-min Rain = 0
KTH1 141210Z 35002KT M06/M07 A3042 RMK A01 T10571070  RH  091%=      5-min Rain = 0
KTH1 141211Z 36002KT M06/M07 A3042 RMK A01 T10571070  RH  091%=      5-min Rain = 0
KTH1 141212Z 00002KT M06/M07 A3042 RMK A01 T10571070  RH  091%=      5-min Rain = 0
KTH1 141213Z 00002KT M06/M07 A3042 RMK A01 T10581070  RH  091%=      5-min Rain = 0
KTH1 141214Z 01001KT M06/M07 A3042 RMK A01 T10581070  RH  091%=      5-min Rain = 0
KTH1 141215Z 01001KT M06/M07 A3042 RMK A01 T10581070  RH  091%=      5-min Rain = 0
KTH1 141216Z 36002KT M06/M07 A3042 RMK A01 T10581070  RH  091%=      5-min Rain = 0
KTH1 141217Z 36001KT M06/M07 A3042 RMK A01 T10581070  RH  091%=      5-min Rain = 0
KTH1 141218Z 00002KT M06/M07 A3042 RMK A01 T10591070  RH  091%=      5-min Rain = 0
KTH1 141219Z 01002KT M06/M07 A3042 RMK A01 T10591071  RH  092%=      5-min Rain = 0
KTH1 141220Z 01002KT M06/M07 A3042 RMK A01 T10591070  RH  092%=      5-min Rain = 0
KTH1 141221Z 02002KT M06/M07 A3042 RMK A01 T10591070  RH  092%=      5-min Rain = 0
KTH1 141222Z 02003KT M06/M07 A3042 RMK A01 T10591070  RH  092%=      5-min Rain = 0
KTH1 141223Z 02002KT M06/M07 A3042 RMK A01 T10591070  RH  092%=      5-min Rain = 0
KTH1 141224Z 03002KT M06/M07 A3042 RMK A01 T10581070  RH  092%=      5-min Rain = 0
KTH1 141225Z 03002KT M06/M07 A3042 RMK A01 T10591070  RH  092%=      5-min Rain = 0
KTH1 141226Z 03002KT M06/M07 A3042 RMK A01 T10591070  RH  091%=      5-min Rain = 0
KTH1 141227Z 04002KT M06/M07 A3042 RMK A01 T10581070  RH  091%=      5-min Rain = 0
KTH1 141228Z 05002KT M06/M07 A3042 RMK A01 T10581070  RH  091%=      5-min Rain = 0
KTH1 141229Z 04003KT M06/M07 A3042 RMK A01 T10581070  RH  091%=      5-min Rain = 0
KTH1 141230Z 05002KT M06/M07 A3042 RMK A01 T10581070  RH  091%=      5-min Rain = 0
KTH1 141231Z 04002KT M06/M07 A3042 RMK A01 T10571069  RH  091%=      5-min Rain = 0
KTH1 141232Z 04003KT M06/M07 A3042 RMK A01 T10561068  RH  091%=      5-min Rain = 0
KTH1 141233Z 04003KT M06/M07 A3042 RMK A01 T10551068  RH  091%=      5-min Rain = 0
KTH1 141234Z 04002KT M06/M07 A3042 RMK A01 T10551068  RH  091%=      5-min Rain = 0
KTH1 141235Z 04003KT M05/M07 A3042 RMK A01 T10541068  RH  090%=      5-min Rain = 0
KTH1 141236Z 04003KT M05/M07 A3042 RMK A01 T10541069  RH  090%=      5-min Rain = 0
KTH1 141237Z 04002KT M05/M07 A3042 RMK A01 T10541069  RH  089%=      5-min Rain = 0
KTH1 141238Z 04003KT M06/M07 A3042 RMK A01 T10551069  RH  089%=      5-min Rain = 0
KTH1 141239Z 04004KT M05/M07 A3042 RMK A01 T10541069  RH  089%=      5-min Rain = 0
KTH1 141240Z 04004KT M05/M07 A3042 RMK A01 T10541069  RH  089%=      5-min Rain = 0
KTH1 141241Z 04003KT M05/M07 A3042 RMK A01 T10541069  RH  089%=      5-min Rain = 0
KTH1 141242Z 04003KT M05/M07 A3042 RMK A01 T10541069  RH  089%=      5-min Rain = 0
KTH1 141243Z 03004KT M05/M07 A3042 RMK A01 T10541070  RH  089%=      5-min Rain = 0
KTH1 141244Z 04003KT M05/M07 A3042 RMK A01 T10541069  RH  089%=      5-min Rain = 0
KTH1 141245Z 03004KT M05/M07 A3042 RMK A01 T10541070  RH  089%=      5-min Rain = 0
KTH1 141246Z 03003KT M05/M07 A3042 RMK A01 T10541070  RH  089%=      5-min Rain = 0
KTH1 141247Z 03004KT M05/M07 A3042 RMK A01 T10541070  RH  089%=      5-min Rain = 0
KTH1 141248Z 03003KT M05/M07 A3042 RMK A01 T10541069  RH  089%=      5-min Rain = 0
KTH1 141249Z 03003KT M05/M07 A3042 RMK A01 T10541069  RH  089%=      5-min Rain = 0
KTH1 141250Z 03003KT M05/M07 A3042 RMK A01 T10541070  RH  089%=      5-min Rain = 0
KTH1 141251Z 03003KT M05/M07 A3042 RMK A01 T10541070  RH  089%=      5-min Rain = 0
KTH1 141252Z 04002KT M05/M07 A3042 RMK A01 T10541070  RH  089%=      5-min Rain = 0
KTH1 141253Z 04002KT M06/M07 A3042 RMK A01 T10551070  RH  089%=      5-min Rain = 0
KTH1 141254Z 05003KT M06/M07 A3042 RMK A01 T10551070  RH  089%=      5-min Rain = 0
KTH1 141255Z 05003KT M06/M07 A3043 RMK A01 T10551070  RH  089%=      5-min Rain = 0
KTH1 141256Z 05003KT M06/M07 A3043 RMK A01 T10551070  RH  089%=      5-min Rain = 0
KTH1 141257Z 06003KT M05/M07 A3043 RMK A01 T10541069  RH  089%=      5-min Rain = 0
KTH1 141258Z 06002KT M05/M07 A3043 RMK A01 T10541068  RH  089%=      5-min Rain = 0
KTH1 141259Z 06002KT M05/M07 A3043 RMK A01 T10541068  RH  089%=      5-min Rain = 0
KTH1 141300Z 06002KT M05/M07 A3043 RMK A01 T10541068  RH  089%=      5-min Rain = 0
KTH1 141301Z 06003KT M05/M07 A3043 RMK A01 T10541068  RH  089%=      5-min Rain = 0
KTH1 141302Z 06002KT M05/M07 A3043 RMK A01 T10541068  RH  089%=      5-min Rain = 0
KTH1 141303Z 06003KT M05/M07 A3043 RMK A01 T10531068  RH  089%=      5-min Rain = 0
KTH1 141304Z 06002KT M05/M07 A3043 RMK A01 T10531069  RH  089%=      5-min Rain = 0
KTH1 141305Z 06003KT M05/M07 A3043 RMK A01 T10541069  RH  089%=      5-min Rain = 0
KTH1 141306Z 06003KT M05/M07 A3043 RMK A01 T10541069  RH  089%=      5-min Rain = 0
KTH1 141307Z 06003KT M05/M07 A3043 RMK A01 T10541069  RH  089%=      5-min Rain = 0
KTH1 141308Z 06002KT M05/M07 A3043 RMK A01 T10541069  RH  089%=      5-min Rain = 0
KTH1 141309Z 06003KT M05/M07 A3043 RMK A01 T10541070  RH  089%=      5-min Rain = 0
KTH1 141310Z 05003KT M05/M07 A3043 RMK A01 T10541070  RH  089%=      5-min Rain = 0
KTH1 141311Z 06003KT M05/M07 A3043 RMK A01 T10541069  RH  089%=      5-min Rain = 0
KTH1 141312Z 06003KT M05/M07 A3043 RMK A01 T10541069  RH  089%=      5-min Rain = 0
KTH1 141313Z 05002KT M06/M07 A3043 RMK A01 T10551070  RH  089%=      5-min Rain = 0
KTH1 141314Z 05002KT M06/M07 A3043 RMK A01 T10551070  RH  089%=      5-min Rain = 0
KTH1 141315Z 05002KT M06/M07 A3043 RMK A01 T10551070  RH  089%=      5-min Rain = 0
KTH1 141316Z 06002KT M06/M07 A3043 RMK A01 T10551070  RH  089%=      5-min Rain = 0
KTH1 141317Z 05002KT M06/M07 A3043 RMK A01 T10551070  RH  089%=      5-min Rain = 0
KTH1 141318Z 05002KT M06/M07 A3043 RMK A01 T10551070  RH  089%=      5-min Rain = 0
KTH1 141319Z 05002KT M06/M07 A3043 RMK A01 T10551069  RH  090%=      5-min Rain = 0
KTH1 141320Z 05002KT M06/M07 A3043 RMK A01 T10551069  RH  090%=      5-min Rain = 0
KTH1 141321Z 05002KT M06/M07 A3043 RMK A01 T10551069  RH  090%=      5-min Rain = 0
KTH1 141322Z 05002KT M06/M07 A3043 RMK A01 T10551070  RH  090%=      5-min Rain = 0
KTH1 141323Z 04002KT M06/M07 A3043 RMK A01 T10551070  RH  090%=      5-min Rain = 0
KTH1 141324Z 04002KT M06/M07 A3043 RMK A01 T10551070  RH  090%=      5-min Rain = 0
KTH1 141325Z 04003KT M06/M07 A3043 RMK A01 T10551069  RH  090%=      5-min Rain = 0
KTH1 141326Z 05003KT M06/M07 A3043 RMK A01 T10551069  RH  090%=      5-min Rain = 0
KTH1 141327Z 05003KT M06/M07 A3043 RMK A01 T10551070  RH  090%=      5-min Rain = 0
KTH1 141328Z 05003KT M06/M07 A3043 RMK A01 T10551070  RH  090%=      5-min Rain = 0
KTH1 141329Z 05003KT M06/M07 A3043 RMK A01 T10551070  RH  090%=      5-min Rain = 0
KTH1 141330Z 05003KT M06/M07 A3043 RMK A01 T10551070  RH  090%=      5-min Rain = 0
KTH1 141331Z 05003KT M06/M07 A3043 RMK A01 T10551069  RH  090%=      5-min Rain = 0
KTH1 141332Z 05003KT M06/M07 A3043 RMK A01 T10551069  RH  090%=      5-min Rain = 0
KTH1 141333Z 05003KT M06/M07 A3043 RMK A01 T10551069  RH  090%=      5-min Rain = 0
KTH1 141334Z 05002KT M06/M07 A3043 RMK A01 T10551069  RH  090%=      5-min Rain = 0
KTH1 141335Z 06002KT M06/M07 A3043 RMK A01 T10551069  RH  090%=      5-min Rain = 0
KTH1 141336Z 06002KT M06/M07 A3043 RMK A01 T10551068  RH  090%=      5-min Rain = 0
KTH1 141337Z 06002KT M05/M07 A3043 RMK A01 T10541068  RH  090%=      5-min Rain = 0
KTH1 141338Z 06002KT M05/M07 A3043 RMK A01 T10541068  RH  090%=      5-min Rain = 0
KTH1 141339Z 05002KT M05/M07 A3043 RMK A01 T10541067  RH  090%=      5-min Rain = 0
KTH1 141340Z 05001KT M05/M07 A3043 RMK A01 T10541068  RH  090%=      5-min Rain = 0
KTH1 141341Z 07001KT M05/M07 A3043 RMK A01 T10541068  RH  090%=      5-min Rain = 0
KTH1 141342Z 06000KT M05/M07 A3043 RMK A01 T10541068  RH  090%=      5-min Rain = 0
KTH1 141343Z 05000KT M05/M07 A3044 RMK A01 T10541068  RH  090%=      5-min Rain = 0
KTH1 141344Z 05001KT M05/M07 A3044 RMK A01 T10541068  RH  090%=      5-min Rain = 0
KTH1 141345Z 05002KT M05/M07 A3044 RMK A01 T10541068  RH  090%=      5-min Rain = 0
KTH1 141346Z 05001KT M05/M07 A3044 RMK A01 T10531067  RH  090%=      5-min Rain = 0
KTH1 141347Z 05001KT M05/M07 A3044 RMK A01 T10521067  RH  090%=      5-min Rain = 0
KTH1 141348Z 04001KT M05/M07 A3044 RMK A01 T10521066  RH  089%=      5-min Rain = 0
KTH1 141349Z 06002KT M05/M07 A3044 RMK A01 T10511066  RH  089%=      5-min Rain = 0
KTH1 141350Z 05001KT M05/M07 A3044 RMK A01 T10491065  RH  089%=      5-min Rain = 0
KTH1 141351Z 06001KT M05/M07 A3044 RMK A01 T10491065  RH  088%=      5-min Rain = 0
KTH1 141352Z 05001KT M05/M07 A3044 RMK A01 T10481065  RH  088%=      5-min Rain = 0
KTH1 141353Z 04001KT M05/M07 A3044 RMK A01 T10471065  RH  087%=      5-min Rain = 0
KTH1 141354Z 04002KT M05/M07 A3044 RMK A01 T10471065  RH  087%=      5-min Rain = 0
KTH1 141355Z 04002KT M05/M07 A3044 RMK A01 T10471066  RH  087%=      5-min Rain = 0
KTH1 141356Z 04002KT M05/M07 A3044 RMK A01 T10471066  RH  086%=      5-min Rain = 0
KTH1 141357Z 04002KT M05/M07 A3044 RMK A01 T10471066  RH  086%=      5-min Rain = 0
KTH1 141358Z 05001KT M05/M07 A3044 RMK A01 T10471066  RH  086%=      5-min Rain = 0
KTH1 141359Z 05001KT M05/M07 A3044 RMK A01 T10471066  RH  086%=      5-min Rain = 0
KTH1 141400Z 05001KT M05/M07 A3044 RMK A01 T10471066  RH  086%=      5-min Rain = 0
KTH1 141401Z 04000KT M05/M07 A3044 RMK A01 T10461065  RH  086%=      5-min Rain = 0
KTH1 141402Z 04000KT M05/M07 A3044 RMK A01 T10451065  RH  086%=      5-min Rain = 0
KTH1 141403Z 09002KT M05/M06 A3044 RMK A01 T10451064  RH  086%=      5-min Rain = 0
KTH1 141404Z 07001KT M04/M06 A3044 RMK A01 T10431063  RH  086%=      5-min Rain = 0
KTH1 141405Z 07001KT M04/M06 A3044 RMK A01 T10421062  RH  086%=      5-min Rain = 0
KTH1 141406Z 07001KT M04/M06 A3044 RMK A01 T10411062  RH  086%=      5-min Rain = 0
KTH1 141407Z 06001KT M04/M06 A3044 RMK A01 T10401061  RH  085%=      5-min Rain = 0
KTH1 141408Z 05001KT M04/M06 A3044 RMK A01 T10391061  RH  085%=      5-min Rain = 0
KTH1 141409Z 04001KT M04/M06 A3044 RMK A01 T10391062  RH  084%=      5-min Rain = 0
KTH1 141410Z 05001KT M04/M06 A3044 RMK A01 T10401063  RH  084%=      5-min Rain = 0
KTH1 141411Z 04001KT M04/M06 A3044 RMK A01 T10401064  RH  084%=      5-min Rain = 0
KTH1 141412Z 08001KT M04/M06 A3044 RMK A01 T10401064  RH  084%=      5-min Rain = 0
KTH1 141413Z 08001KT M04/M06 A3044 RMK A01 T10411063  RH  084%=      5-min Rain = 0
KTH1 141414Z 08002KT M04/M06 A3044 RMK A01 T10401063  RH  084%=      5-min Rain = 0
KTH1 141415Z 07003KT M04/M06 A3044 RMK A01 T10391062  RH  084%=      5-min Rain = 0
KTH1 141416Z 07001KT M04/M06 A3045 RMK A01 T10381061  RH  084%=      5-min Rain = 0
KTH1 141417Z 07002KT M04/M06 A3045 RMK A01 T10371059  RH  085%=      5-min Rain = 0
KTH1 141418Z 07002KT M04/M06 A3045 RMK A01 T10351058  RH  084%=      5-min Rain = 0
KTH1 141419Z 06002KT M03/M06 A3045 RMK A01 T10341059  RH  083%=      5-min Rain = 0
KTH1 141420Z 07003KT M03/M06 A3045 RMK A01 T10341060  RH  082%=      5-min Rain = 0
KTH1 141421Z 07003KT M03/M06 A3045 RMK A01 T10331061  RH  081%=      5-min Rain = 0
KTH1 141422Z 06004KT M03/M06 A3045 RMK A01 T10341062  RH  081%=      5-min Rain = 0
KTH1 141423Z 07003KT M04/M06 A3045 RMK A01 T10351062  RH  081%=      5-min Rain = 0
KTH1 141424Z 07003KT M04/M06 A3045 RMK A01 T10351062  RH  081%=      5-min Rain = 0
KTH1 141425Z 08004KT M03/M06 A3045 RMK A01 T10341061  RH  082%=      5-min Rain = 0
KTH1 141426Z 09003KT M03/M06 A3045 RMK A01 T10341062  RH  081%=      5-min Rain = 0
KTH1 141427Z 09003KT M03/M06 A3045 RMK A01 T10341062  RH  081%=      5-min Rain = 0
KTH1 141428Z 08002KT M03/M06 A3045 RMK A01 T10331062  RH  081%=      5-min Rain = 0
KTH1 141429Z 07003KT M03/M06 A3045 RMK A01 T10331061  RH  081%=      5-min Rain = 0
KTH1 141430Z 06004KT M03/M06 A3045 RMK A01 T10331062  RH  080%=      5-min Rain = 0
KTH1 141431Z 07004KT M03/M06 A3045 RMK A01 T10331063  RH  080%=      5-min Rain = 0
KTH1 141432Z 07004KT M03/M06 A3045 RMK A01 T10331063  RH  079%=      5-min Rain = 0
KTH1 141433Z 07002KT M03/M06 A3045 RMK A01 T10331062  RH  080%=      5-min Rain = 0
KTH1 141434Z 08002KT M03/M06 A3045 RMK A01 T10321060  RH  081%=      5-min Rain = 0
KTH1 141435Z 08003KT M03/M06 A3045 RMK A01 T10311059  RH  081%=      5-min Rain = 0
KTH1 141436Z 08004KT M03/M06 A3045 RMK A01 T10311061  RH  080%=      5-min Rain = 0
KTH1 141437Z 08004KT M03/M06 A3045 RMK A01 T10301062  RH  079%=      5-min Rain = 0
KTH1 141438Z 08004KT M03/M06 A3045 RMK A01 T10301063  RH  078%=      5-min Rain = 0
KTH1 141439Z 08004KT M03/M06 A3045 RMK A01 T10301062  RH  079%=      5-min Rain = 0
KTH1 141440Z 07003KT M03/M06 A3045 RMK A01 T10301062  RH  079%=      5-min Rain = 0
KTH1 141441Z 08004KT M03/M06 A3045 RMK A01 T10301060  RH  079%=      5-min Rain = 0
KTH1 141442Z 08003KT M03/M06 A3045 RMK A01 T10291060  RH  079%=      5-min Rain = 0
KTH1 141443Z 07004KT M03/M06 A3045 RMK A01 T10281059  RH  080%=      5-min Rain = 0
KTH1 141444Z 09005KT M03/M06 A3045 RMK A01 T10271058  RH  079%=      5-min Rain = 0
KTH1 141445Z 08004KT M03/M06 A3045 RMK A01 T10271060  RH  078%=      5-min Rain = 0
KTH1 141446Z 09004KT M03/M06 A3045 RMK A01 T10261059  RH  079%=      5-min Rain = 0
KTH1 141447Z 09005KT M03/M06 A3045 RMK A01 T10251057  RH  079%=      5-min Rain = 0
KTH1 141448Z 08005KT M03/M06 A3046 RMK A01 T10251059  RH  077%=      5-min Rain = 0
KTH1 141449Z 08005KT M03/M06 A3046 RMK A01 T10251059  RH  077%=      5-min Rain = 0
KTH1 141450Z 09003KT M02/M06 A3046 RMK A01 T10241059  RH  077%=      5-min Rain = 0
KTH1 141451Z 08004KT M02/M06 A3046 RMK A01 T10241060  RH  076%=      5-min Rain = 0
KTH1 141452Z 09004KT M02/M06 A3046 RMK A01 T10231059  RH  076%=      5-min Rain = 0
KTH1 141453Z 07004KT M02/M06 A3046 RMK A01 T10211056  RH  077%=      5-min Rain = 0
KTH1 141454Z 08002KT M02/M05 A3046 RMK A01 T10191053  RH  078%=      5-min Rain = 0
KTH1 141455Z 06004KT M02/M05 A3046 RMK A01 T10181053  RH  077%=      5-min Rain = 0
KTH1 141456Z 05004KT M02/M06 A3046 RMK A01 T10181057  RH  075%=      5-min Rain = 0
KTH1 141457Z 06003KT M02/M06 A3046 RMK A01 T10191058  RH  074%=      5-min Rain = 0
KTH1 141458Z 07004KT M02/M06 A3046 RMK A01 T10201059  RH  074%=      5-min Rain = 0
KTH1 141459Z 07005KT M02/M06 A3046 RMK A01 T10201057  RH  075%=      5-min Rain = 0
KTH1 141500Z 08005KT M02/M06 A3046 RMK A01 T10191058  RH  075%=      5-min Rain = 0
KTH1 141501Z 07004KT M02/M06 A3046 RMK A01 T10181058  RH  074%=      5-min Rain = 0
KTH1 141502Z 07004KT M02/M06 A3046 RMK A01 T10181057  RH  074%=      5-min Rain = 0
KTH1 141503Z 08004KT M02/M06 A3046 RMK A01 T10171059  RH  073%=      5-min Rain = 0
KTH1 141504Z 07005KT M02/M05 A3046 RMK A01 T10161054  RH  075%=      5-min Rain = 0
KTH1 141505Z 07004KT M02/M06 A3046 RMK A01 T10151056  RH  073%=      5-min Rain = 0
KTH1 141506Z 07004KT M02/M06 A3046 RMK A01 T10161060  RH  072%=      5-min Rain = 0
KTH1 141507Z 09004KT M02/M06 A3046 RMK A01 T10161057  RH  073%=      5-min Rain = 0
KTH1 141508Z 08005KT M01/M06 A3046 RMK A01 T10141057  RH  073%=      5-min Rain = 0
KTH1 141509Z 07005KT M02/M06 A3046 RMK A01 T10151061  RH  071%=      5-min Rain = 0
KTH1 141510Z 09004KT M02/M06 A3046 RMK A01 T10171061  RH  072%=      5-min Rain = 0
KTH1 141511Z 09004KT M02/M06 A3046 RMK A01 T10161060  RH  072%=      5-min Rain = 0
KTH1 141512Z 08005KT M02/M06 A3046 RMK A01 T10151055  RH  074%=      5-min Rain = 0
KTH1 141513Z 07005KT M01/M05 A3046 RMK A01 T10121052  RH  074%=      5-min Rain = 0
KTH1 141514Z 06006KT M01/M05 A3046 RMK A01 T10101051  RH  074%=      5-min Rain = 0
KTH1 141515Z 06004KT M01/M05 A3046 RMK A01 T10101053  RH  072%=      5-min Rain = 0
KTH1 141516Z 07004KT M01/M05 A3046 RMK A01 T10091050  RH  074%=      5-min Rain = 0
KTH1 141517Z 07005KT M01/M05 A3046 RMK A01 T10081051  RH  072%=      5-min Rain = 0
KTH1 141518Z 08005KT M01/M06 A3046 RMK A01 T10091057  RH  070%=      5-min Rain = 0
KTH1 141519Z 08006KT M01/M06 A3046 RMK A01 T10101058  RH  070%=      5-min Rain = 0
KTH1 141520Z 08006KT M01/M06 A3046 RMK A01 T10111059  RH  070%=      5-min Rain = 0
KTH1 141521Z 09004KT M01/M06 A3046 RMK A01 T10121061  RH  069%=      5-min Rain = 0
KTH1 141522Z 08006KT M01/M06 A3046 RMK A01 T10111057  RH  071%=      5-min Rain = 0
KTH1 141523Z 07005KT M01/M06 A3046 RMK A01 T10111060  RH  069%=      5-min Rain = 0
KTH1 141524Z 09004KT M01/M06 A3046 RMK A01 T10111059  RH  070%=      5-min Rain = 0
KTH1 141525Z 07004KT M01/M05 A3046 RMK A01 T10101054  RH  072%=      5-min Rain = 0
KTH1 141526Z 09004KT M01/M06 A3046 RMK A01 T10081056  RH  070%=      5-min Rain = 0
KTH1 141527Z 09005KT M01/M06 A3046 RMK A01 T10071057  RH  069%=      5-min Rain = 0
KTH1 141528Z 07005KT M01/M05 A3046 RMK A01 T10051053  RH  070%=      5-min Rain = 0
KTH1 141529Z 07005KT M00/M06 A3046 RMK A01 T10041055  RH  068%=      5-min Rain = 0
KTH1 141530Z 08005KT M01/M06 A3046 RMK A01 T10061059  RH  067%=      5-min Rain = 0
KTH1 141531Z 11005KT M01/M06 A3046 RMK A01 T10061058  RH  068%=      5-min Rain = 0
KTH1 141532Z 10004KT M01/M06 A3046 RMK A01 T10061062  RH  066%=      5-min Rain = 0
KTH1 141533Z 11004KT M01/M06 A3046 RMK A01 T10061062  RH  066%=      5-min Rain = 0
KTH1 141534Z 10004KT M01/M06 A3046 RMK A01 T10051061  RH  066%=      5-min Rain = 0
KTH1 141535Z 08005KT M01/M06 A3046 RMK A01 T10051061  RH  066%=      5-min Rain = 0
KTH1 141536Z 09005KT M00/M06 A3046 RMK A01 T10041059  RH  066%=      5-min Rain = 0
KTH1 141537Z 09004KT M00/M06 A3046 RMK A01 T10031058  RH  067%=      5-min Rain = 0
KTH1 141538Z 07004KT M00/M06 A3046 RMK A01 T10031060  RH  066%=      5-min Rain = 0
KTH1 141539Z 07005KT M00/M06 A3046 RMK A01 T10031061  RH  065%=      5-min Rain = 0
KTH1 141540Z 09004KT M00/M06 A3046 RMK A01 T10041063  RH  064%=      5-min Rain = 0
KTH1 141541Z 09006KT M01/M06 A3046 RMK A01 T10051063  RH  065%=      5-min Rain = 0
KTH1 141542Z 09005KT M01/M06 A3046 RMK A01 T10051062  RH  065%=      5-min Rain = 0
KTH1 141543Z 07004KT M01/M06 A3046 RMK A01 T10051060  RH  066%=      5-min Rain = 0
KTH1 141544Z 06004KT M00/M06 A3046 RMK A01 T10041058  RH  067%=      5-min Rain = 0
KTH1 141545Z 08004KT M00/M06 A3046 RMK A01 T10041061  RH  065%=      5-min Rain = 0
KTH1 141546Z 10007KT M00/M06 A3046 RMK A01 T10041061  RH  065%=      5-min Rain = 0
KTH1 141547Z 10005KT M00/M06 A3046 RMK A01 T10041063  RH  065%=      5-min Rain = 0
KTH1 141548Z 12005KT M00/M06 A3046 RMK A01 T10041061  RH  065%=      5-min Rain = 0
KTH1 141549Z 08004KT 00/05 A3046 RMK A01 T00-00-52  RH  068%=      5-min Rain = 0
KTH1 141550Z 07003KT 00/M05 A3046 RMK A01 T00021054  RH  066%=      5-min Rain = 0
KTH1 141551Z 09004KT 00/M06 A3045 RMK A01 T00021058  RH  064%=      5-min Rain = 0
KTH1 141552Z 09004KT 00/M06 A3046 RMK A01 T00021058  RH  064%=      5-min Rain = 0
KTH1 141553Z 09005KT 00/M06 A3046 RMK A01 T00021056  RH  065%=      5-min Rain = 0
KTH1 141554Z 10005KT 00/M06 A3045 RMK A01 T00011060  RH  064%=      5-min Rain = 0
KTH1 141555Z 10005KT 00/06 A3045 RMK A01 T00-00-63  RH  063%=      5-min Rain = 0
KTH1 141556Z 07004KT M00/M06 A3045 RMK A01 T10011063  RH  063%=      5-min Rain = 0
KTH1 141557Z 09006KT M00/M06 A3045 RMK A01 T10011059  RH  065%=      5-min Rain = 0
KTH1 141558Z 10007KT 00/M06 A3045 RMK A01 T00011058  RH  065%=      5-min Rain = 0
KTH1 141559Z 11004KT 00/M06 A3045 RMK A01 T00021062  RH  062%=      5-min Rain = 0
KTH1 141600Z 10004KT 00/M06 A3045 RMK A01 T00011064  RH  062%=      5-min Rain = 0
KTH1 141601Z 10005KT 00/M06 A3045 RMK A01 T00011064  RH  062%=      5-min Rain = 0
KTH1 141602Z 09004KT 00/M06 A3045 RMK A01 T00021061  RH  062%=      5-min Rain = 0
KTH1 141603Z 10006KT 01/M06 A3045 RMK A01 T00051058  RH  063%=      5-min Rain = 0
KTH1 141604Z 09005KT 01/M06 A3045 RMK A01 T00061059  RH  062%=      5-min Rain = 0
KTH1 141605Z 10004KT 01/M06 A3045 RMK A01 T00061057  RH  063%=      5-min Rain = 0
KTH1 141606Z 10003KT 01/M06 A3045 RMK A01 T00071057  RH  062%=      5-min Rain = 0
KTH1 141607Z 11005KT 01/M06 A3045 RMK A01 T00081057  RH  062%=      5-min Rain = 0
KTH1 141608Z 10005KT 01/M06 A3045 RMK A01 T00091060  RH  060%=      5-min Rain = 0
KTH1 141609Z 09004KT 01/M06 A3045 RMK A01 T00071063  RH  060%=      5-min Rain = 0
KTH1 141610Z 09004KT 01/M06 A3045 RMK A01 T00061061  RH  061%=      5-min Rain = 0
KTH1 141611Z 11004KT 01/M06 A3045 RMK A01 T00061059  RH  062%=      5-min Rain = 0
KTH1 141612Z 11004KT 01/M06 A3045 RMK A01 T00081057  RH  062%=      5-min Rain = 0
KTH1 141613Z 12005KT 01/M05 A3045 RMK A01 T00101054  RH  063%=      5-min Rain = 0
KTH1 141614Z 13005KT 01/M06 A3045 RMK A01 T00111058  RH  060%=      5-min Rain = 0
KTH1 141615Z 14005KT 01/M06 A3045 RMK A01 T00121059  RH  059%=      5-min Rain = 0
KTH1 141616Z 13004KT 01/M06 A3045 RMK A01 T00131060  RH  058%=      5-min Rain = 0
KTH1 141617Z 15007KT 01/M05 A3045 RMK A01 T00141054  RH  061%=      5-min Rain = 0
KTH1 141618Z 15007KT 02/M05 A3045 RMK A01 T00151051  RH  061%=      5-min Rain = 0
KTH1 141619Z 14005KT 02/M05 A3045 RMK A01 T00171054  RH  059%=      5-min Rain = 0
KTH1 141620Z 15006KT 02/M06 A3045 RMK A01 T00171055  RH  059%=      5-min Rain = 0
KTH1 141621Z 14006KT 02/M06 A3045 RMK A01 T00171056  RH  058%=      5-min Rain = 0
KTH1 141622Z 14005KT 02/M05 A3045 RMK A01 T00181054  RH  059%=      5-min Rain = 0
KTH1 141623Z 14006KT 02/M05 A3045 RMK A01 T00191052  RH  059%=      5-min Rain = 0
KTH1 141624Z 13005KT 02/M06 A3045 RMK A01 T00171057  RH  058%=      5-min Rain = 0
KTH1 141625Z 13004KT 02/M06 A3045 RMK A01 T00161058  RH  058%=      5-min Rain = 0
KTH1 141626Z 12007KT 02/M05 A3045 RMK A01 T00151054  RH  060%=      5-min Rain = 0
KTH1 141627Z 12008KT 02/M05 A3045 RMK A01 T00151054  RH  060%=      5-min Rain = 0
KTH1 141628Z 12007KT 01/M06 A3045 RMK A01 T00141057  RH  059%=      5-min Rain = 0
KTH1 141629Z 11006KT 01/M06 A3045 RMK A01 T00111059  RH  059%=      5-min Rain = 0
KTH1 141630Z 12004KT 01/M06 A3045 RMK A01 T00091061  RH  059%=      5-min Rain = 0
KTH1 141631Z 13005KT 01/M05 A3045 RMK A01 T00111054  RH  062%=      5-min Rain = 0
KTH1 141632Z 14007KT 01/M05 A3044 RMK A01 T00141050  RH  062%=      5-min Rain = 0
KTH1 141633Z 13005KT 02/M05 A3044 RMK A01 T00161053  RH  060%=      5-min Rain = 0
KTH1 141634Z 14005KT 02/M05 A3044 RMK A01 T00161054  RH  060%=      5-min Rain = 0
KTH1 141635Z 12004KT 02/M05 A3044 RMK A01 T00171050  RH  061%=      5-min Rain = 0
KTH1 141636Z 11007KT 02/M05 A3044 RMK A01 T00171053  RH  060%=      5-min Rain = 0
KTH1 141637Z 10005KT 02/M05 A3044 RMK A01 T00161053  RH  060%=      5-min Rain = 0
KTH1 141638Z 13005KT 02/M05 A3044 RMK A01 T00151053  RH  060%=      5-min Rain = 0
KTH1 141639Z 13005KT 02/M05 A3044 RMK A01 T00151054  RH  060%=      5-min Rain = 0
KTH1 141640Z 13007KT 02/M05 A3044 RMK A01 T00151053  RH  060%=      5-min Rain = 0
KTH1 141641Z 14008KT 02/M05 A3044 RMK A01 T00171052  RH  060%=      5-min Rain = 0
KTH1 141642Z 14006KT 02/M05 A3044 RMK A01 T00171052  RH  060%=      5-min Rain = 0
KTH1 141643Z 16007KT 02/M05 A3044 RMK A01 T00191053  RH  059%=      5-min Rain = 0
KTH1 141644Z 12005KT 02/M05 A3044 RMK A01 T00191054  RH  058%=      5-min Rain = 0
KTH1 141645Z 10007KT 02/M05 A3044 RMK A01 T00201050  RH  060%=      5-min Rain = 0
KTH1 141646Z 11007KT 02/M05 A3044 RMK A01 T00211048  RH  060%=      5-min Rain = 0
KTH1 141647Z 13008KT 02/M05 A3044 RMK A01 T00221048  RH  060%=      5-min Rain = 0
KTH1 141648Z 13006KT 02/M05 A3044 RMK A01 T00211050  RH  059%=      5-min Rain = 0
KTH1 141649Z 12004KT 02/M05 A3044 RMK A01 T00211052  RH  059%=      5-min Rain = 0
KTH1 141650Z 12005G10KT 02/M05 A3044 RMK A01 T00201053  RH  059%=      5-min Rain = 0
KTH1 141651Z 12008KT 02/M05 A3044 RMK A01 T00211049  RH  060%=      5-min Rain = 0
KTH1 141652Z 12006KT 02/M05 A3044 RMK A01 T00211051  RH  059%=      5-min Rain = 0
KTH1 141653Z 11006KT 02/M05 A3044 RMK A01 T00211051  RH  059%=      5-min Rain = 0
KTH1 141654Z 13007KT 02/M05 A3044 RMK A01 T00201053  RH  058%=      5-min Rain = 0
KTH1 141655Z 12005KT 02/M05 A3044 RMK A01 T00211052  RH  058%=      5-min Rain = 0
KTH1 141656Z 12008KT 02/M05 A3044 RMK A01 T00211052  RH  058%=      5-min Rain = 0
KTH1 141657Z 12006KT 02/M05 A3044 RMK A01 T00221052  RH  058%=      5-min Rain = 0
KTH1 141658Z 12005KT 02/M05 A3044 RMK A01 T00221050  RH  059%=      5-min Rain = 0
KTH1 141659Z 10007KT 02/M05 A3044 RMK A01 T00231049  RH  059%=      5-min Rain = 0
KTH1 141700Z 11005KT 02/M05 A3044 RMK A01 T00231054  RH  057%=      5-min Rain = 0
KTH1 141701Z 14005G11KT 02/M05 A3044 RMK A01 T00231049  RH  059%=      5-min Rain = 0
KTH1 141702Z 14006KT 03/M05 A3044 RMK A01 T00261046  RH  059%=      5-min Rain = 0
KTH1 141703Z 15006KT 03/M05 A3044 RMK A01 T00281051  RH  056%=      5-min Rain = 0
KTH1 141704Z 15007KT 03/M05 A3044 RMK A01 T00281052  RH  056%=      5-min Rain = 0
KTH1 141705Z 16005KT 03/M05 A3044 RMK A01 T00291052  RH  055%=      5-min Rain = 0
KTH1 141706Z 10004KT 03/M05 A3044 RMK A01 T00301050  RH  056%=      5-min Rain = 0
KTH1 141707Z 13007KT 03/M05 A3044 RMK A01 T00311048  RH  056%=      5-min Rain = 0
KTH1 141708Z 14005KT 03/M05 A3044 RMK A01 T00331048  RH  055%=      5-min Rain = 0
KTH1 141709Z 12005KT 03/M05 A3044 RMK A01 T00321053  RH  054%=      5-min Rain = 0
KTH1 141710Z 10007KT 03/M05 A3044 RMK A01 T00321048  RH  056%=      5-min Rain = 0
KTH1 141711Z 09006KT 03/M05 A3044 RMK A01 T00301051  RH  055%=      5-min Rain = 0
KTH1 141712Z 12005KT 03/M05 A3044 RMK A01 T00291045  RH  058%=      5-min Rain = 0
KTH1 141713Z 12008KT 03/M05 A3043 RMK A01 T00311046  RH  057%=      5-min Rain = 0
KTH1 141714Z 13006KT 03/M05 A3043 RMK A01 T00321046  RH  056%=      5-min Rain = 0
KTH1 141715Z 13006KT 03/M05 A3043 RMK A01 T00331049  RH  055%=      5-min Rain = 0
KTH1 141716Z 13005KT 03/M05 A3043 RMK A01 T00311054  RH  054%=      5-min Rain = 0
KTH1 141717Z 14005KT 03/M05 A3043 RMK A01 T00301051  RH  055%=      5-min Rain = 0
KTH1 141718Z 14004KT 03/M05 A3043 RMK A01 T00301053  RH  055%=      5-min Rain = 0
KTH1 141719Z 12008KT 03/M05 A3043 RMK A01 T00311049  RH  056%=      5-min Rain = 0
KTH1 141720Z 12008KT 03/M04 A3043 RMK A01 T00341043  RH  057%=      5-min Rain = 0
KTH1 141721Z 10006KT 03/M05 A3043 RMK A01 T00341046  RH  056%=      5-min Rain = 0
KTH1 141722Z 12006KT 03/M04 A3043 RMK A01 T00341043  RH  057%=      5-min Rain = 0
KTH1 141723Z 14007KT 04/M05 A3043 RMK A01 T00351045  RH  056%=      5-min Rain = 0
KTH1 141724Z 13007KT 04/M05 A3043 RMK A01 T00351048  RH  055%=      5-min Rain = 0
KTH1 141725Z 13006KT 03/M05 A3043 RMK A01 T00341050  RH  054%=      5-min Rain = 0
KTH1 141726Z 13005KT 03/M05 A3043 RMK A01 T00341048  RH  055%=      5-min Rain = 0
KTH1 141727Z 17006KT 04/M05 A3043 RMK A01 T00351046  RH  055%=      5-min Rain = 0
KTH1 141728Z 16006KT 04/M04 A3043 RMK A01 T00401040  RH  056%=      5-min Rain = 0
KTH1 141729Z 15007KT 04/M05 A3043 RMK A01 T00411045  RH  053%=      5-min Rain = 0
KTH1 141730Z 13007KT 04/M04 A3043 RMK A01 T00401041  RH  056%=      5-min Rain = 0
KTH1 141731Z 14007KT 04/M04 A3043 RMK A01 T00411040  RH  056%=      5-min Rain = 0
KTH1 141732Z 14004KT 04/M04 A3043 RMK A01 T00411041  RH  055%=      5-min Rain = 0
KTH1 141733Z 15006KT 04/M04 A3043 RMK A01 T00411041  RH  055%=      5-min Rain = 0
KTH1 141734Z 15007KT 04/M04 A3043 RMK A01 T00411042  RH  055%=      5-min Rain = 0
KTH1 141735Z 16004KT 04/M04 A3043 RMK A01 T00431036  RH  056%=      5-min Rain = 0
KTH1 141736Z 16007KT 04/M04 A3043 RMK A01 T00441041  RH  054%=      5-min Rain = 0
KTH1 141737Z 16007KT 05/M04 A3043 RMK A01 T00451043  RH  053%=      5-min Rain = 0
KTH1 141738Z 14007KT 04/M04 A3043 RMK A01 T00441043  RH  053%=      5-min Rain = 0
KTH1 141739Z 14004KT 04/M05 A3043 RMK A01 T00411048  RH  052%=      5-min Rain = 0
KTH1 141740Z 15005KT 04/M04 A3042 RMK A01 T00401042  RH  055%=      5-min Rain = 0
KTH1 141741Z 16005KT 04/M04 A3042 RMK A01 T00421042  RH  055%=      5-min Rain = 0
KTH1 141742Z 16007KT 04/M04 A3042 RMK A01 T00421040  RH  055%=      5-min Rain = 0
KTH1 141743Z 16006KT 05/M04 A3042 RMK A01 T00451039  RH  055%=      5-min Rain = 0
KTH1 141744Z 14003KT 05/M04 A3042 RMK A01 T00451042  RH  053%=      5-min Rain = 0
KTH1 141745Z 14008KT 04/M04 A3042 RMK A01 T00441041  RH  054%=      5-min Rain = 0
KTH1 141746Z 13009KT 05/M03 A3042 RMK A01 T00461034  RH  056%=      5-min Rain = 0
KTH1 141747Z 14008KT 05/M04 A3042 RMK A01 T00461037  RH  055%=      5-min Rain = 0
KTH1 141748Z 12006KT 05/M04 A3042 RMK A01 T00451038  RH  055%=      5-min Rain = 0
KTH1 141749Z 13005KT 05/M03 A3042 RMK A01 T00451033  RH  057%=      5-min Rain = 0
KTH1 141750Z 16009KT 05/M03 A3042 RMK A01 T00461033  RH  056%=      5-min Rain = 0
KTH1 141751Z 15010KT 05/M03 A3042 RMK A01 T00481034  RH  055%=      5-min Rain = 0
KTH1 141752Z 16008KT 05/M04 A3042 RMK A01 T00481039  RH  053%=      5-min Rain = 0
KTH1 141753Z 17006KT 05/M04 A3042 RMK A01 T00451041  RH  054%=      5-min Rain = 0
KTH1 141754Z 16005KT 04/M04 A3042 RMK A01 T00441040  RH  054%=      5-min Rain = 0
KTH1 141755Z 16006KT 04/M04 A3042 RMK A01 T00441038  RH  055%=      5-min Rain = 0
KTH1 141756Z 11004KT 04/M04 A3042 RMK A01 T00441040  RH  055%=      5-min Rain = 0
KTH1 141757Z 13001KT 04/M04 A3041 RMK A01 T00421041  RH  055%=      5-min Rain = 0
KTH1 141758Z 15001KT 04/M03 A3041 RMK A01 T00421034  RH  058%=      5-min Rain = 0
KTH1 141759Z 15006G11KT 05/M03 A3041 RMK A01 T00451034  RH  056%=      5-min Rain = 0
KTH1 141800Z 15008KT 05/M03 A3041 RMK A01 T00481032  RH  056%=      5-min Rain = 0
KTH1 141801Z 15006KT 05/M04 A3041 RMK A01 T00481037  RH  054%=      5-min Rain = 0
KTH1 141802Z 16008KT 05/M04 A3041 RMK A01 T00481036  RH  055%=      5-min Rain = 0
KTH1 141803Z 17006KT 05/M04 A3041 RMK A01 T00491035  RH  055%=      5-min Rain = 0
KTH1 141804Z 13006KT 05/M04 A3041 RMK A01 T00491036  RH  054%=      5-min Rain = 0
KTH1 141805Z 15005KT 05/M03 A3041 RMK A01 T00491033  RH  055%=      5-min Rain = 0
KTH1 141806Z 17005KT 05/M04 A3041 RMK A01 T00501035  RH  054%=      5-min Rain = 0
KTH1 141807Z 17005KT 05/M03 A3041 RMK A01 T00511033  RH  055%=      5-min Rain = 0
KTH1 141808Z 16010KT 05/M03 A3041 RMK A01 T00531030  RH  055%=      5-min Rain = 0
KTH1 141809Z 17010KT 05/M03 A3041 RMK A01 T00541034  RH  053%=      5-min Rain = 0
KTH1 141810Z 17008KT 05/M04 A3041 RMK A01 T00531035  RH  053%=      5-min Rain = 0
KTH1 141811Z 16007KT 05/M03 A3041 RMK A01 T00521034  RH  054%=      5-min Rain = 0
KTH1 141812Z 17006KT 05/M03 A3041 RMK A01 T00541029  RH  055%=      5-min Rain = 0
KTH1 141813Z 12005KT 06/M03 A3041 RMK A01 T00561027  RH  055%=      5-min Rain = 0
KTH1 141814Z 18006KT 06/M03 A3041 RMK A01 T00561031  RH  054%=      5-min Rain = 0
KTH1 141815Z 18008KT 06/M03 A3041 RMK A01 T00551031  RH  054%=      5-min Rain = 0
KTH1 141816Z 17008KT 06/M03 A3041 RMK A01 T00561032  RH  053%=      5-min Rain = 0
KTH1 141817Z 17007KT 06/M03 A3041 RMK A01 T00571030  RH  053%=      5-min Rain = 0
KTH1 141818Z 18007KT 06/M03 A3041 RMK A01 T00581029  RH  053%=      5-min Rain = 0
KTH1 141819Z 19007KT 06/M03 A304 RMK A01 T00591030  RH  053%=      5-min Rain = 0
KTH1 141820Z 18007KT 06/M03 A304 RMK A01 T00581032  RH  052%=      5-min Rain = 0
KTH1 141821Z 16007KT 06/M03 A304 RMK A01 T00551029  RH  054%=      5-min Rain = 0
KTH1 141822Z 15008KT 06/M03 A304 RMK A01 T00581027  RH  054%=      5-min Rain = 0
KTH1 141823Z 16007KT 06/M03 A304 RMK A01 T00581027  RH  054%=      5-min Rain = 0
KTH1 141824Z 16005KT 06/M03 A304 RMK A01 T00581031  RH  053%=      5-min Rain = 0
KTH1 141825Z 14007KT 06/M03 A304 RMK A01 T00571030  RH  053%=      5-min Rain = 0
KTH1 141826Z 17006KT 06/M03 A304 RMK A01 T00571026  RH  055%=      5-min Rain = 0
KTH1 141827Z 16008KT 06/M03 A304 RMK A01 T00591026  RH  054%=      5-min Rain = 0
KTH1 141828Z 15007KT 06/M03 A304 RMK A01 T00601025  RH  054%=      5-min Rain = 0
KTH1 141829Z 16009KT 06/M03 A304 RMK A01 T00621025  RH  054%=      5-min Rain = 0
KTH1 141830Z 16007KT 06/M03 A304 RMK A01 T00611030  RH  052%=      5-min Rain = 0
KTH1 141831Z 19007KT 06/M02 A304 RMK A01 T00601023  RH  055%=      5-min Rain = 0
KTH1 141832Z 19005KT 06/M03 A304 RMK A01 T00621026  RH  053%=      5-min Rain = 0
KTH1 141833Z 19006KT 06/M02 A3039 RMK A01 T00621022  RH  055%=      5-min Rain = 0
KTH1 141834Z 15008KT 06/M02 A3039 RMK A01 T00631023  RH  054%=      5-min Rain = 0
KTH1 141835Z 16007KT 06/M03 A3039 RMK A01 T00621025  RH  054%=      5-min Rain = 0
KTH1 141836Z 15010KT 06/M02 A3039 RMK A01 T00621024  RH  054%=      5-min Rain = 0
KTH1 141837Z 15008KT 06/M03 A3039 RMK A01 T00621027  RH  053%=      5-min Rain = 0
KTH1 141838Z 17008KT 06/M03 A3039 RMK A01 T00601028  RH  053%=      5-min Rain = 0
KTH1 141839Z 16008KT 06/M03 A3039 RMK A01 T00591030  RH  053%=      5-min Rain = 0
KTH1 141840Z 15007KT 06/M03 A3039 RMK A01 T00571030  RH  054%=      5-min Rain = 0
KTH1 141841Z 14007KT 06/M03 A3039 RMK A01 T00581029  RH  054%=      5-min Rain = 0
KTH1 141842Z 12006KT 06/M02 A3039 RMK A01 T00601023  RH  055%=      5-min Rain = 0
KTH1 141843Z 12004KT 06/M02 A3039 RMK A01 T00601023  RH  055%=      5-min Rain = 0
KTH1 141844Z 14005KT 06/M02 A3038 RMK A01 T00631015  RH  058%=      5-min Rain = 0
KTH1 141845Z 14008KT 07/M01 A3038 RMK A01 T00681011  RH  057%=      5-min Rain = 0
KTH1 141846Z 13009KT 07/M02 A3038 RMK A01 T00701018  RH  053%=      5-min Rain = 0
KTH1 141847Z 14006KT 07/M03 A3038 RMK A01 T00671026  RH  051%=      5-min Rain = 0
KTH1 141848Z 13011KT 06/M03 A3038 RMK A01 T00641028  RH  052%=      5-min Rain = 0
KTH1 141849Z 15011KT 06/M03 A3038 RMK A01 T00621025  RH  054%=      5-min Rain = 0
KTH1 141850Z 15010KT 06/M03 A3038 RMK A01 T00611027  RH  053%=      5-min Rain = 0
KTH1 141851Z 15011KT 06/M03 A3038 RMK A01 T00611025  RH  054%=      5-min Rain = 0
KTH1 141852Z 15009KT 06/M02 A3037 RMK A01 T00621023  RH  055%=      5-min Rain = 0
KTH1 141853Z 15006KT 06/M02 A3037 RMK A01 T00631024  RH  054%=      5-min Rain = 0
KTH1 141854Z 13005KT 07/M02 A3037 RMK A01 T00661019  RH  055%=      5-min Rain = 0
KTH1 141855Z 15008KT 07/M02 A3037 RMK A01 T00681018  RH  054%=      5-min Rain = 0
KTH1 141856Z 17007KT 07/M03 A3037 RMK A01 T00701025  RH  051%=      5-min Rain = 0
KTH1 141857Z 18009KT 07/M03 A3037 RMK A01 T00691025  RH  051%=      5-min Rain = 0
KTH1 141858Z 14010KT 07/M02 A3037 RMK A01 T00691023  RH  052%=      5-min Rain = 0
KTH1 141859Z 16009KT 07/M02 A3037 RMK A01 T00701022  RH  052%=      5-min Rain = 0
KTH1 141900Z 15006KT 07/M03 A3037 RMK A01 T00661030  RH  050%=      5-min Rain = 0
KTH1 141901Z 14006KT 07/M03 A3037 RMK A01 T00651027  RH  052%=      5-min Rain = 0
KTH1 141902Z 14007KT 07/M02 A3037 RMK A01 T00651023  RH  053%=      5-min Rain = 0
KTH1 141903Z 13009KT 07/M02 A3036 RMK A01 T00661021  RH  054%=      5-min Rain = 0
KTH1 141904Z 13008KT 07/M02 A3036 RMK A01 T00681019  RH  054%=      5-min Rain = 0
KTH1 141905Z 13005KT 07/M03 A3036 RMK A01 T00661025  RH  052%=      5-min Rain = 0
KTH1 141906Z 17005KT 06/M03 A3036 RMK A01 T00631025  RH  053%=      5-min Rain = 0
KTH1 141907Z 15008KT 07/M02 A3036 RMK A01 T00661020  RH  054%=      5-min Rain = 0
KTH1 141908Z 15009KT 07/M02 A3036 RMK A01 T00681021  RH  053%=      5-min Rain = 0
KTH1 141909Z 15010KT 07/M02 A3036 RMK A01 T00691021  RH  053%=      5-min Rain = 0
KTH1 141910Z 15009KT 07/M02 A3036 RMK A01 T00711016  RH  054%=      5-min Rain = 0
KTH1 141911Z 12009KT 07/M02 A3036 RMK A01 T00721019  RH  052%=      5-min Rain = 0
KTH1 141912Z 12008KT 07/M02 A3036 RMK A01 T00701021  RH  052%=      5-min Rain = 0
KTH1 141913Z 12006KT 07/M02 A3036 RMK A01 T00681023  RH  052%=      5-min Rain = 0
KTH1 141914Z 15007KT 07/M02 A3036 RMK A01 T00661024  RH  052%=      5-min Rain = 0
KTH1 141915Z 16007KT 07/M02 A3036 RMK A01 T00671023  RH  053%=      5-min Rain = 0
KTH1 141916Z 14006KT 07/M02 A3036 RMK A01 T00681021  RH  053%=      5-min Rain = 0
KTH1 141917Z 14006KT 07/M02 A3035 RMK A01 T00711015  RH  054%=      5-min Rain = 0
KTH1 141918Z 15009KT 07/M02 A3035 RMK A01 T00731019  RH  052%=      5-min Rain = 0
KTH1 141919Z 15011KT 08/M02 A3035 RMK A01 T00751019  RH  051%=      5-min Rain = 0
KTH1 141920Z 17010KT 08/M02 A3035 RMK A01 T00751024  RH  049%=      5-min Rain = 0
KTH1 141921Z 16012KT 07/M03 A3035 RMK A01 T00741025  RH  049%=      5-min Rain = 0
KTH1 141922Z 15009KT 07/M03 A3035 RMK A01 T00731026  RH  049%=      5-min Rain = 0
KTH1 141923Z 16010KT 07/M02 A3035 RMK A01 T00721024  RH  050%=      5-min Rain = 0
KTH1 141924Z 16011KT 07/M02 A3035 RMK A01 T00741023  RH  050%=      5-min Rain = 0
KTH1 141925Z 15011KT 08/M02 A3035 RMK A01 T00751024  RH  050%=      5-min Rain = 0
KTH1 141926Z 16008KT 08/M02 A3035 RMK A01 T00751023  RH  050%=      5-min Rain = 0
KTH1 141927Z 16010KT 08/M02 A3035 RMK A01 T00761020  RH  051%=      5-min Rain = 0
KTH1 141928Z 15010KT 08/M02 A3035 RMK A01 T00771019  RH  050%=      5-min Rain = 0
KTH1 141929Z 15008KT 08/M02 A3034 RMK A01 T00771021  RH  050%=      5-min Rain = 0
KTH1 141930Z 16007KT 08/M02 A3034 RMK A01 T00761019  RH  051%=      5-min Rain = 0
KTH1 141931Z 16006KT 08/M02 A3034 RMK A01 T00771017  RH  051%=      5-min Rain = 0
KTH1 141932Z 15009KT 08/M02 A3034 RMK A01 T00801016  RH  051%=      5-min Rain = 0
KTH1 141933Z 14008KT 08/M02 A3034 RMK A01 T00811018  RH  050%=      5-min Rain = 0
KTH1 141934Z 15010KT 08/M01 A3034 RMK A01 T00811014  RH  051%=      5-min Rain = 0
KTH1 141935Z 15011KT 08/M02 A3034 RMK A01 T00821016  RH  050%=      5-min Rain = 0
KTH1 141936Z 15009KT 08/M02 A3034 RMK A01 T00811017  RH  050%=      5-min Rain = 0
KTH1 141937Z 15011KT 08/M02 A3034 RMK A01 T00811016  RH  050%=      5-min Rain = 0
KTH1 141938Z 16010KT 08/M02 A3034 RMK A01 T00801020  RH  049%=      5-min Rain = 0
KTH1 141939Z 15008KT 08/M02 A3034 RMK A01 T00791019  RH  050%=      5-min Rain = 0
KTH1 141940Z 13007KT 08/M02 A3034 RMK A01 T00791018  RH  050%=      5-min Rain = 0
KTH1 141941Z 13006KT 08/M01 A3034 RMK A01 T00801013  RH  052%=      5-min Rain = 0
KTH1 141942Z 14008KT 08/M02 A3034 RMK A01 T00801015  RH  051%=      5-min Rain = 0
KTH1 141943Z 14007KT 08/M02 A3034 RMK A01 T00801017  RH  050%=      5-min Rain = 0
KTH1 141944Z 14010KT 08/M01 A3034 RMK A01 T00841008  RH  052%=      5-min Rain = 0
KTH1 141945Z 15007KT 09/M01 A3034 RMK A01 T00871014  RH  049%=      5-min Rain = 0
KTH1 141946Z 15008KT 09/M02 A3033 RMK A01 T00861017  RH  048%=      5-min Rain = 0
KTH1 141947Z 17007KT 09/M02 A3033 RMK A01 T00851019  RH  048%=      5-min Rain = 0
KTH1 141948Z 15006KT 09/M02 A3033 RMK A01 T00861015  RH  049%=      5-min Rain = 0
KTH1 141949Z 15008KT 09/M02 A3033 RMK A01 T00871019  RH  047%=      5-min Rain = 0
KTH1 141950Z 15007KT 09/M02 A3033 RMK A01 T00871018  RH  048%=      5-min Rain = 0
KTH1 141951Z 16006KT 09/M02 A3033 RMK A01 T00861023  RH  046%=      5-min Rain = 0
KTH1 141952Z 14006KT 08/M03 A3033 RMK A01 T00831026  RH  046%=      5-min Rain = 0
KTH1 141953Z 14006KT 09/M02 A3033 RMK A01 T00851015  RH  050%=      5-min Rain = 0
KTH1 141954Z 11009KT 09/M02 A3033 RMK A01 T00881017  RH  048%=      5-min Rain = 0
KTH1 141955Z 13006KT 08/M02 A3033 RMK A01 T00841023  RH  047%=      5-min Rain = 0
KTH1 141956Z 16007KT 08/M02 A3033 RMK A01 T00831020  RH  048%=      5-min Rain = 0
KTH1 141957Z 14008KT 08/M02 A3033 RMK A01 T00841021  RH  048%=      5-min Rain = 0
KTH1 141958Z 14009KT 09/M02 A3033 RMK A01 T00851019  RH  048%=      5-min Rain = 0
KTH1 141959Z 16008KT 09/M02 A3032 RMK A01 T00861018  RH  048%=      5-min Rain = 0
KTH1 142000Z 13009KT 09/M02 A3032 RMK A01 T00871019  RH  047%=      5-min Rain = 0
KTH1 142001Z 13007KT 09/M02 A3032 RMK A01 T00861024  RH  046%=      5-min Rain = 0
KTH1 142002Z 13006KT 08/M02 A3032 RMK A01 T00841024  RH  047%=      5-min Rain = 0
KTH1 142003Z 15004KT 08/M02 A3032 RMK A01 T00841022  RH  047%=      5-min Rain = 0
KTH1 142004Z 12008KT 09/M02 A3032 RMK A01 T00861019  RH  048%=      5-min Rain = 0
KTH1 142005Z 13008KT 09/M02 A3032 RMK A01 T00861022  RH  047%=      5-min Rain = 0
KTH1 142006Z 13008KT 08/M02 A3032 RMK A01 T00841019  RH  048%=      5-min Rain = 0
KTH1 142007Z 13010KT 09/M02 A3032 RMK A01 T00851016  RH  049%=      5-min Rain = 0
KTH1 142008Z 13008KT 09/M02 A3032 RMK A01 T00861016  RH  049%=      5-min Rain = 0
KTH1 142009Z 12008KT 09/M02 A3031 RMK A01 T00861020  RH  047%=      5-min Rain = 0
KTH1 142010Z 13009KT 09/M02 A3031 RMK A01 T00851022  RH  047%=      5-min Rain = 0
KTH1 142011Z 12011KT 09/M02 A3031 RMK A01 T00851022  RH  047%=      5-min Rain = 0
KTH1 142012Z 13009G14KT 09/M02 A3031 RMK A01 T00861018  RH  048%=      5-min Rain = 0
KTH1 142013Z 16009KT 09/M02 A3031 RMK A01 T00871022  RH  046%=      5-min Rain = 0
KTH1 142014Z 17009KT 09/M02 A3031 RMK A01 T00881019  RH  047%=      5-min Rain = 0
KTH1 142015Z 17010KT 09/M02 A3031 RMK A01 T00911020  RH  046%=      5-min Rain = 0
KTH1 142016Z 17009KT 09/M02 A3031 RMK A01 T00921024  RH  044%=      5-min Rain = 0
KTH1 142017Z 17010KT 09/M03 A3031 RMK A01 T00911025  RH  044%=      5-min Rain = 0
KTH1 142018Z 17008KT 09/M03 A3031 RMK A01 T00891025  RH  045%=      5-min Rain = 0
KTH1 142019Z 18006KT 09/M03 A3031 RMK A01 T00881025  RH  045%=      5-min Rain = 0
KTH1 142020Z 15009KT 09/M02 A3031 RMK A01 T00901023  RH  045%=      5-min Rain = 0
KTH1 142021Z 15010KT 09/M03 A3031 RMK A01 T00901025  RH  044%=      5-min Rain = 0
KTH1 142022Z 14009KT 09/M02 A3031 RMK A01 T00911023  RH  045%=      5-min Rain = 0
KTH1 142023Z 17009KT 09/M02 A3031 RMK A01 T00921019  RH  046%=      5-min Rain = 0
KTH1 142024Z 17011KT 10/M02 A3031 RMK A01 T00951019  RH  045%=      5-min Rain = 0
KTH1 142025Z 15010KT 09/M03 A3031 RMK A01 T00941025  RH  043%=      5-min Rain = 0
KTH1 142026Z 15011KT 09/M03 A3031 RMK A01 T00931025  RH  043%=      5-min Rain = 0
KTH1 142027Z 16011KT 09/M03 A3031 RMK A01 T00921025  RH  044%=      5-min Rain = 0
KTH1 142028Z 15010KT 09/M03 A3031 RMK A01 T00921026  RH  044%=      5-min Rain = 0
KTH1 142029Z 13008KT 09/M02 A3031 RMK A01 T00931022  RH  044%=      5-min Rain = 0
KTH1 142030Z 13005KT 09/M02 A3031 RMK A01 T00941018  RH  046%=      5-min Rain = 0
KTH1 142031Z 17008KT 10/M02 A303 RMK A01 T00961018  RH  045%=      5-min Rain = 0
KTH1 142032Z 16007KT 10/M02 A303 RMK A01 T00961023  RH  043%=      5-min Rain = 0
KTH1 142033Z 15008KT 10/M02 A303 RMK A01 T00951021  RH  044%=      5-min Rain = 0
KTH1 142034Z 16008KT 10/M02 A303 RMK A01 T00951020  RH  044%=      5-min Rain = 0
KTH1 142035Z 18007KT 10/M02 A303 RMK A01 T00961019  RH  045%=      5-min Rain = 0
KTH1 142036Z 15007KT 10/M02 A303 RMK A01 T00971018  RH  045%=      5-min Rain = 0
KTH1 142037Z 16009KT 10/M02 A303 RMK A01 T00981020  RH  044%=      5-min Rain = 0
KTH1 142038Z 16008KT 10/M02 A303 RMK A01 T00971021  RH  043%=      5-min Rain = 0
KTH1 142039Z 15007KT 10/M02 A303 RMK A01 T00971020  RH  044%=      5-min Rain = 0
KTH1 142040Z 14011KT 10/M02 A303 RMK A01 T00961019  RH  044%=      5-min Rain = 0
KTH1 142041Z 13007KT 10/M02 A303 RMK A01 T00951018  RH  045%=      5-min Rain = 0
KTH1 142042Z 15010KT 10/M01 A303 RMK A01 T00961014  RH  046%=      5-min Rain = 0
KTH1 142043Z 16008KT 10/M02 A303 RMK A01 T00961016  RH  045%=      5-min Rain = 0
KTH1 142044Z 15009KT 10/M02 A303 RMK A01 T00971018  RH  045%=      5-min Rain = 0
KTH1 142045Z 15007KT 10/M02 A303 RMK A01 T00971019  RH  044%=      5-min Rain = 0
KTH1 142046Z 15006KT 10/M02 A303 RMK A01 T00971022  RH  043%=      5-min Rain = 0
KTH1 142047Z 13006KT 10/M02 A303 RMK A01 T00971019  RH  044%=      5-min Rain = 0
KTH1 142048Z 14007KT 10/M02 A303 RMK A01 T00981016  RH  045%=      5-min Rain = 0
KTH1 142049Z 17009KT 10/M02 A3029 RMK A01 T00981015  RH  045%=      5-min Rain = 0
KTH1 142050Z 18005KT 10/M02 A3029 RMK A01 T01001016  RH  044%=      5-min Rain = 0
KTH1 142051Z 16007KT 10/M02 A3029 RMK A01 T01031015  RH  044%=      5-min Rain = 0
KTH1 142052Z 16009KT 11/M02 A3029 RMK A01 T01051016  RH  043%=      5-min Rain = 0
KTH1 142053Z 15009KT 10/M02 A3029 RMK A01 T01041017  RH  043%=      5-min Rain = 0
KTH1 142054Z 17010KT 10/M01 A3029 RMK A01 T01041014  RH  044%=      5-min Rain = 0
KTH1 142055Z 17010KT 10/M02 A3029 RMK A01 T01041021  RH  042%=      5-min Rain = 0
KTH1 142056Z 16009KT 10/M02 A3029 RMK A01 T01021021  RH  042%=      5-min Rain = 0
KTH1 142057Z 17009KT 10/M02 A3029 RMK A01 T01011021  RH  043%=      5-min Rain = 0
KTH1 142058Z 16010KT 10/M02 A3029 RMK A01 T00991023  RH  042%=      5-min Rain = 0
KTH1 142059Z 18007G12KT 10/M02 A3029 RMK A01 T00991019  RH  044%=      5-min Rain = 0
KTH1 142100Z 16010KT 10/M02 A3029 RMK A01 T01011017  RH  044%=      5-min Rain = 0
KTH1 142101Z 16007G13KT 10/M02 A3029 RMK A01 T01021017  RH  043%=      5-min Rain = 0
KTH1 142102Z 17009KT 10/M02 A3029 RMK A01 T01021021  RH  042%=      5-min Rain = 0
KTH1 142103Z 16008KT 10/M02 A3029 RMK A01 T01011021  RH  043%=      5-min Rain = 0
KTH1 142104Z 17009KT 10/M02 A3029 RMK A01 T01001020  RH  043%=      5-min Rain = 0
KTH1 142105Z 16009KT 10/M02 A3029 RMK A01 T01011021  RH  042%=      5-min Rain = 0
KTH1 142106Z 18010KT 10/M02 A3029 RMK A01 T01011020  RH  043%=      5-min Rain = 0
KTH1 142107Z 17008KT 10/M02 A3029 RMK A01 T01011018  RH  043%=      5-min Rain = 0
KTH1 142108Z 16008G13KT 10/M02 A3029 RMK A01 T01021020  RH  043%=      5-min Rain = 0
KTH1 142109Z 17010KT 10/M02 A3029 RMK A01 T01021018  RH  043%=      5-min Rain = 0
KTH1 142110Z 16009KT 10/M02 A3029 RMK A01 T01021019  RH  043%=      5-min Rain = 0
KTH1 142111Z 16009KT 10/M02 A3029 RMK A01 T01011019  RH  043%=      5-min Rain = 0
KTH1 142112Z 13006KT 10/M01 A3029 RMK A01 T01011014  RH  045%=      5-min Rain = 0
KTH1 142113Z 16007KT 10/M01 A3029 RMK A01 T01021014  RH  044%=      5-min Rain = 0
KTH1 142114Z 15007KT 10/M02 A3029 RMK A01 T01021016  RH  044%=      5-min Rain = 0
KTH1 142115Z 16009KT 10/M02 A3029 RMK A01 T01031016  RH  043%=      5-min Rain = 0
KTH1 142116Z 15007KT 10/M02 A3029 RMK A01 T01031018  RH  043%=      5-min Rain = 0
KTH1 142117Z 15008KT 10/M02 A3029 RMK A01 T01031016  RH  043%=      5-min Rain = 0
KTH1 142118Z 16009KT 10/M02 A3028 RMK A01 T01031017  RH  043%=      5-min Rain = 0
KTH1 142119Z 15009KT 10/M02 A3028 RMK A01 T01031016  RH  043%=      5-min Rain = 0
KTH1 142120Z 16009KT 10/M02 A3028 RMK A01 T01041016  RH  043%=      5-min Rain = 0
KTH1 142121Z 17008KT 10/M02 A3028 RMK A01 T01041018  RH  043%=      5-min Rain = 0
KTH1 142122Z 16009KT 10/M02 A3028 RMK A01 T01041018  RH  042%=      5-min Rain = 0
KTH1 142123Z 17006KT 11/M02 A3028 RMK A01 T01051015  RH  043%=      5-min Rain = 0
KTH1 142124Z 17009KT 11/M01 A3028 RMK A01 T01081013  RH  043%=      5-min Rain = 0
KTH1 142125Z 18012KT 11/M02 A3028 RMK A01 T01101016  RH  042%=      5-min Rain = 0
KTH1 142126Z 18011KT 11/M02 A3028 RMK A01 T01101016  RH  041%=      5-min Rain = 0
KTH1 142127Z 17009KT 11/M02 A3028 RMK A01 T01091015  RH  042%=      5-min Rain = 0
KTH1 142128Z 17010KT 11/M02 A3028 RMK A01 T01091017  RH  041%=      5-min Rain = 0
KTH1 142129Z 18012KT 11/M02 A3028 RMK A01 T01081021  RH  040%=      5-min Rain = 0
KTH1 142130Z 16009KT 11/M02 A3028 RMK A01 T01061022  RH  041%=      5-min Rain = 0
KTH1 142131Z 16011KT 11/M02 A3028 RMK A01 T01051020  RH  042%=      5-min Rain = 0
KTH1 142132Z 17012KT 11/M02 A3028 RMK A01 T01051019  RH  042%=      5-min Rain = 0
KTH1 142133Z 15009G14KT 11/M02 A3028 RMK A01 T01051020  RH  042%=      5-min Rain = 0
KTH1 142134Z 15011G16KT 11/M02 A3028 RMK A01 T01061016  RH  043%=      5-min Rain = 0
KTH1 142135Z 14011KT 11/M01 A3028 RMK A01 T01081013  RH  043%=      5-min Rain = 0
KTH1 142136Z 14014KT 11/M02 A3028 RMK A01 T01091015  RH  042%=      5-min Rain = 0
KTH1 142137Z 15011KT 11/M02 A3028 RMK A01 T01071018  RH  042%=      5-min Rain = 0
KTH1 142138Z 17009KT 11/M02 A3027 RMK A01 T01051017  RH  042%=      5-min Rain = 0
KTH1 142139Z 17007KT 11/M02 A3027 RMK A01 T01051019  RH  042%=      5-min Rain = 0
KTH1 142140Z 18007KT 11/M02 A3027 RMK A01 T01051017  RH  042%=      5-min Rain = 0
KTH1 142141Z 17009KT 11/M02 A3027 RMK A01 T01061016  RH  042%=      5-min Rain = 0
KTH1 142142Z 16010KT 11/M02 A3027 RMK A01 T01071015  RH  042%=      5-min Rain = 0
KTH1 142143Z 17009KT 11/M02 A3027 RMK A01 T01081017  RH  042%=      5-min Rain = 0
KTH1 142144Z 16005KT 11/M01 A3027 RMK A01 T01071014  RH  043%=      5-min Rain = 0
KTH1 142145Z 18009KT 11/M01 A3027 RMK A01 T01091011  RH  043%=      5-min Rain = 0
KTH1 142146Z 18009KT 11/M01 A3027 RMK A01 T01101013  RH  042%=      5-min Rain = 0
KTH1 142147Z 19006KT 11/M01 A3027 RMK A01 T01101012  RH  043%=      5-min Rain = 0
KTH1 142148Z 17009KT 11/M01 A3027 RMK A01 T01111011  RH  043%=      5-min Rain = 0
KTH1 142149Z 15012KT 11/M01 A3027 RMK A01 T01111013  RH  042%=      5-min Rain = 0
KTH1 142150Z 15009KT 11/M01 A3027 RMK A01 T01111012  RH  042%=      5-min Rain = 0
KTH1 142151Z 15010KT 11/M01 A3027 RMK A01 T01101013  RH  042%=      5-min Rain = 0
KTH1 142152Z 14012KT 11/M01 A3027 RMK A01 T01101011  RH  043%=      5-min Rain = 0
KTH1 142153Z 16013KT 11/M01 A3027 RMK A01 T01111010  RH  043%=      5-min Rain = 0
KTH1 142154Z 16008KT 11/M01 A3027 RMK A01 T01101014  RH  042%=      5-min Rain = 0
KTH1 142155Z 15009KT 11/M01 A3026 RMK A01 T01101014  RH  042%=      5-min Rain = 0
KTH1 142156Z 15007KT 11/M01 A3026 RMK A01 T01091012  RH  043%=      5-min Rain = 0
KTH1 142157Z 15007KT 11/M01 A3026 RMK A01 T01111007  RH  044%=      5-min Rain = 0
KTH1 142158Z 16009KT 11/M01 A3026 RMK A01 T01141009  RH  043%=      5-min Rain = 0
KTH1 142159Z 15010KT 11/M01 A3026 RMK A01 T01141010  RH  042%=      5-min Rain = 0
KTH1 142200Z 17011KT 11/M01 A3026 RMK A01 T01141012  RH  042%=      5-min Rain = 0
KTH1 142201Z 18009G14KT 11/M02 A3026 RMK A01 T01131015  RH  041%=      5-min Rain = 0
KTH1 142202Z 16011KT 11/M01 A3026 RMK A01 T01131014  RH  041%=      5-min Rain = 0
KTH1 142203Z 17010KT 11/M01 A3026 RMK A01 T01131011  RH  042%=      5-min Rain = 0
KTH1 142204Z 16009KT 11/M01 A3026 RMK A01 T01131012  RH  042%=      5-min Rain = 0
KTH1 142205Z 16010KT 11/M01 A3026 RMK A01 T01131013  RH  042%=      5-min Rain = 0
KTH1 142206Z 15009KT 11/M01 A3026 RMK A01 T01131012  RH  042%=      5-min Rain = 0
KTH1 142207Z 15013KT 11/M01 A3026 RMK A01 T01131009  RH  043%=      5-min Rain = 0
KTH1 142208Z 15010G15KT 11/M01 A3026 RMK A01 T01131010  RH  042%=      5-min Rain = 0
KTH1 142209Z 17011KT 11/M01 A3026 RMK A01 T01131011  RH  042%=      5-min Rain = 0
KTH1 142210Z 17009KT 11/M01 A3026 RMK A01 T01131014  RH  041%=      5-min Rain = 0
KTH1 142211Z 16008KT 11/M01 A3026 RMK A01 T01121012  RH  042%=      5-min Rain = 0
KTH1 142212Z 16010KT 11/M01 A3026 RMK A01 T01121014  RH  042%=      5-min Rain = 0
KTH1 142213Z 15006KT 11/M01 A3026 RMK A01 T01111013  RH  042%=      5-min Rain = 0
KTH1 142214Z 16007KT 11/M01 A3026 RMK A01 T01111009  RH  043%=      5-min Rain = 0
KTH1 142215Z 16009KT 11/M01 A3026 RMK A01 T01131010  RH  043%=      5-min Rain = 0
KTH1 142216Z 18011KT 11/M01 A3026 RMK A01 T01131012  RH  042%=      5-min Rain = 0
KTH1 142217Z 18011KT 11/M01 A3026 RMK A01 T01131012  RH  042%=      5-min Rain = 0
KTH1 142218Z 18008KT 11/M01 A3026 RMK A01 T01121013  RH  042%=      5-min Rain = 0
KTH1 142219Z 18008KT 11/M01 A3026 RMK A01 T01121012  RH  042%=      5-min Rain = 0
KTH1 142220Z 16008KT 11/M01 A3026 RMK A01 T01121009  RH  043%=      5-min Rain = 0
KTH1 142221Z 15013KT 11/M01 A3026 RMK A01 T01141011  RH  042%=      5-min Rain = 0
KTH1 142222Z 14013KT 11/M01 A3026 RMK A01 T01131010  RH  042%=      5-min Rain = 0
KTH1 142223Z 15014KT 11/M01 A3026 RMK A01 T01131009  RH  043%=      5-min Rain = 0
KTH1 142224Z 15011KT 11/M01 A3026 RMK A01 T01121013  RH  042%=      5-min Rain = 0
KTH1 142225Z 15010KT 11/M01 A3026 RMK A01 T01121011  RH  043%=      5-min Rain = 0
KTH1 142226Z 15008G13KT 11/M01 A3026 RMK A01 T01121011  RH  042%=      5-min Rain = 0
KTH1 142227Z 15008KT 11/M01 A3026 RMK A01 T01131007  RH  043%=      5-min Rain = 0
KTH1 142228Z 16009G15KT 12/M00 A3026 RMK A01 T01151004  RH  044%=      5-min Rain = 0
KTH1 142229Z 15012KT 12/M01 A3025 RMK A01 T01171009  RH  042%=      5-min Rain = 0
KTH1 142230Z 16008KT 12/M01 A3025 RMK A01 T01161011  RH  041%=      5-min Rain = 0
KTH1 142231Z 16009KT 12/M01 A3025 RMK A01 T01151011  RH  041%=      5-min Rain = 0
KTH1 142232Z 15012KT 12/M01 A3025 RMK A01 T01161011  RH  041%=      5-min Rain = 0
KTH1 142233Z 15011KT 11/M01 A3025 RMK A01 T01141011  RH  042%=      5-min Rain = 0
KTH1 142234Z 14011KT 11/M01 A3025 RMK A01 T01131010  RH  042%=      5-min Rain = 0
KTH1 142235Z 15010KT 11/M01 A3025 RMK A01 T01131011  RH  042%=      5-min Rain = 0
KTH1 142236Z 15009KT 11/M01 A3025 RMK A01 T01131009  RH  043%=      5-min Rain = 0
KTH1 142237Z 15012KT 11/M01 A3025 RMK A01 T01131009  RH  043%=      5-min Rain = 0
KTH1 142238Z 15010KT 11/M01 A3025 RMK A01 T01141011  RH  042%=      5-min Rain = 0
KTH1 142239Z 15011KT 11/M01 A3025 RMK A01 T01131010  RH  042%=      5-min Rain = 0
KTH1 142240Z 15010KT 11/M01 A3025 RMK A01 T01131011  RH  042%=      5-min Rain = 0
KTH1 142241Z 13010KT 11/M01 A3025 RMK A01 T01131010  RH  042%=      5-min Rain = 0
KTH1 142242Z 15010KT 11/M01 A3025 RMK A01 T01121010  RH  043%=      5-min Rain = 0
KTH1 142243Z 16009KT 11/M01 A3025 RMK A01 T01121010  RH  043%=      5-min Rain = 0
KTH1 142244Z 15010KT 11/M01 A3025 RMK A01 T01131011  RH  042%=      5-min Rain = 0
KTH1 142245Z 15011KT 11/M01 A3025 RMK A01 T01131010  RH  042%=      5-min Rain = 0
KTH1 142246Z 15012KT 11/M01 A3025 RMK A01 T01141010  RH  042%=      5-min Rain = 0
KTH1 142247Z 14011KT 11/M01 A3025 RMK A01 T01141008  RH  043%=      5-min Rain = 0
KTH1 142248Z 15013KT 11/M01 A3025 RMK A01 T01141007  RH  043%=      5-min Rain = 0
KTH1 142249Z 17010KT 12/M01 A3025 RMK A01 T01151010  RH  042%=      5-min Rain = 0
KTH1 142250Z 16008KT 11/M01 A3025 RMK A01 T01141012  RH  041%=      5-min Rain = 0
KTH1 142251Z 15007KT 11/M01 A3025 RMK A01 T01141010  RH  042%=      5-min Rain = 0
KTH1 142252Z 14008KT 12/M01 A3025 RMK A01 T01151007  RH  043%=      5-min Rain = 0
KTH1 142253Z 14008KT 12/M01 A3025 RMK A01 T01151007  RH  043%=      5-min Rain = 0
KTH1 142254Z 15006KT 12/M01 A3025 RMK A01 T01151008  RH  042%=      5-min Rain = 0
KTH1 142255Z 15008KT 12/M01 A3024 RMK A01 T01161008  RH  042%=      5-min Rain = 0
KTH1 142256Z 15011KT 12/M01 A3024 RMK A01 T01161009  RH  042%=      5-min Rain = 0
KTH1 142257Z 14011KT 12/M01 A3024 RMK A01 T01151010  RH  042%=      5-min Rain = 0
KTH1 142258Z 15011KT 11/M01 A3024 RMK A01 T01141010  RH  042%=      5-min Rain = 0
KTH1 142259Z 14011KT 11/M01 A3024 RMK A01 T01141009  RH  043%=      5-min Rain = 0
KTH1 142300Z 15008G13KT 11/M01 A3024 RMK A01 T01141009  RH  043%=      5-min Rain = 0
KTH1 142301Z 15008KT 11/M01 A3024 RMK A01 T01141009  RH  043%=      5-min Rain = 0
KTH1 142302Z 16010G15KT 11/M01 A3024 RMK A01 T01141010  RH  042%=      5-min Rain = 0
KTH1 142303Z 16011KT 11/M01 A3024 RMK A01 T01131013  RH  042%=      5-min Rain = 0
KTH1 142304Z 16011KT 11/M01 A3024 RMK A01 T01131013  RH  042%=      5-min Rain = 0
KTH1 142305Z 15009KT 11/M01 A3024 RMK A01 T01121013  RH  042%=      5-min Rain = 0
KTH1 142306Z 14008G14KT 11/M01 A3024 RMK A01 T01111010  RH  043%=      5-min Rain = 0
KTH1 142307Z 15010KT 11/M01 A3024 RMK A01 T01111010  RH  043%=      5-min Rain = 0
KTH1 142308Z 15011KT 11/M01 A3024 RMK A01 T01111008  RH  043%=      5-min Rain = 0
KTH1 142309Z 15013KT 11/M01 A3024 RMK A01 T01111009  RH  043%=      5-min Rain = 0
KTH1 142310Z 14011KT 11/M01 A3024 RMK A01 T01111010  RH  043%=      5-min Rain = 0
KTH1 142311Z 15012KT 11/M01 A3024 RMK A01 T01111010  RH  043%=      5-min Rain = 0
KTH1 142312Z 14010KT 11/M01 A3024 RMK A01 T01101010  RH  043%=      5-min Rain = 0
KTH1 142313Z 14008KT 11/M01 A3024 RMK A01 T01111007  RH  044%=      5-min Rain = 0
KTH1 142314Z 13010KT 11/M01 A3024 RMK A01 T01111008  RH  044%=      5-min Rain = 0
KTH1 142315Z 14010KT 11/M01 A3024 RMK A01 T01111008  RH  044%=      5-min Rain = 0
KTH1 142316Z 14009KT 11/M01 A3024 RMK A01 T01111008  RH  044%=      5-min Rain = 0
KTH1 142317Z 15008KT 11/M01 A3024 RMK A01 T01111007  RH  044%=      5-min Rain = 0
KTH1 142318Z 15012KT 11/M01 A3024 RMK A01 T01121006  RH  044%=      5-min Rain = 0
KTH1 142319Z 15011KT 11/M01 A3024 RMK A01 T01121009  RH  043%=      5-min Rain = 0
KTH1 142320Z 14007KT 11/M01 A3024 RMK A01 T01121006  RH  044%=      5-min Rain = 0
KTH1 142321Z 15008KT 11/M01 A3024 RMK A01 T01121006  RH  044%=      5-min Rain = 0
KTH1 142322Z 15010KT 11/M01 A3024 RMK A01 T01111005  RH  044%=      5-min Rain = 0
KTH1 142323Z 15010KT 11/M01 A3024 RMK A01 T01111006  RH  044%=      5-min Rain = 0
KTH1 142324Z 15011KT 11/M01 A3024 RMK A01 T01111005  RH  045%=      5-min Rain = 0
KTH1 142325Z 15011KT 11/M01 A3024 RMK A01 T01111006  RH  044%=      5-min Rain = 0
KTH1 142326Z 15011KT 11/M01 A3024 RMK A01 T01111005  RH  044%=      5-min Rain = 0
KTH1 142327Z 15008KT 11/M01 A3024 RMK A01 T01111006  RH  044%=      5-min Rain = 0
KTH1 142328Z 15011KT 11/M01 A3023 RMK A01 T01111005  RH  045%=      5-min Rain = 0
KTH1 142329Z 15011KT 11/M01 A3023 RMK A01 T01111006  RH  044%=      5-min Rain = 0
KTH1 142330Z 15010KT 11/M01 A3024 RMK A01 T01111006  RH  044%=      5-min Rain = 0
KTH1 142331Z 15009KT 11/M01 A3023 RMK A01 T01101007  RH  044%=      5-min Rain = 0
KTH1 142332Z 15008KT 11/M01 A3023 RMK A01 T01101006  RH  044%=      5-min Rain = 0
KTH1 142333Z 15009G14KT 11/M01 A3023 RMK A01 T01101005  RH  045%=      5-min Rain = 0
KTH1 142334Z 15010KT 11/M01 A3023 RMK A01 T01101006  RH  045%=      5-min Rain = 0
KTH1 142335Z 14011KT 11/M01 A3023 RMK A01 T01091006  RH  045%=      5-min Rain = 0
KTH1 142336Z 15010KT 11/M01 A3023 RMK A01 T01091005  RH  045%=      5-min Rain = 0
KTH1 142337Z 15011KT 11/M01 A3023 RMK A01 T01081005  RH  045%=      5-min Rain = 0
KTH1 142338Z 15012KT 11/M01 A3023 RMK A01 T01081006  RH  045%=      5-min Rain = 0
KTH1 142339Z 15010KT 11/M01 A3023 RMK A01 T01081006  RH  045%=      5-min Rain = 0
KTH1 142340Z 15010KT 11/M01 A3023 RMK A01 T01081005  RH  045%=      5-min Rain = 0
KTH1 142341Z 15008KT 11/M01 A3023 RMK A01 T01081005  RH  046%=      5-min Rain = 0
KTH1 142342Z 15011KT 11/M01 A3023 RMK A01 T01071005  RH  046%=      5-min Rain = 0
KTH1 142343Z 15010KT 11/M01 A3023 RMK A01 T01081005  RH  046%=      5-min Rain = 0
KTH1 142344Z 15012KT 11/M00 A3023 RMK A01 T01081004  RH  046%=      5-min Rain = 0
KTH1 142345Z 15010KT 11/M00 A3023 RMK A01 T01081004  RH  046%=      5-min Rain = 0
KTH1 142346Z 15012KT 11/M00 A3023 RMK A01 T01081004  RH  046%=      5-min Rain = 0
KTH1 142347Z 14010KT 11/M00 A3023 RMK A01 T01071004  RH  046%=      5-min Rain = 0
KTH1 142348Z 15011KT 11/M00 A3023 RMK A01 T01071003  RH  047%=      5-min Rain = 0
KTH1 142349Z 14009KT 11/M00 A3023 RMK A01 T01071004  RH  046%=      5-min Rain = 0
KTH1 142350Z 14007KT 11/M00 A3023 RMK A01 T01061002  RH  047%=      5-min Rain = 0
KTH1 142351Z 15009KT 11/M00 A3023 RMK A01 T01061001  RH  047%=      5-min Rain = 0
KTH1 142352Z 14010KT 11/M00 A3023 RMK A01 T01051003  RH  047%=      5-min Rain = 0
KTH1 142353Z 15009KT 11/M00 A3023 RMK A01 T01051003  RH  047%=      5-min Rain = 0
KTH1 142354Z 15010KT 11/M00 A3023 RMK A01 T01051002  RH  047%=      5-min Rain = 0
KTH1 142355Z 15009KT 11/M00 A3023 RMK A01 T01051003  RH  047%=      5-min Rain = 0
KTH1 142356Z 14009KT 11/M00 A3023 RMK A01 T01051003  RH  047%=      5-min Rain = 0
KTH1 142357Z 14008KT 10/M00 A3023 RMK A01 T01041003  RH  047%=      5-min Rain = 0
KTH1 142358Z 14007KT 10/M00 A3023 RMK A01 T01041002  RH  048%=      5-min Rain = 0
KTH1 142359Z 14009KT 10/M00 A3023 RMK A01 T01031002  RH  048%=      5-min Rain = 0
KTH1 150000Z 15007KT 10/M00 A3023 RMK A01 T01031002  RH  048%=      5-min Rain = 0
KTH1 150001Z 15008KT 10/M00 A3023 RMK A01 T01021002  RH  049%=      5-min Rain = 0
KTH1 150002Z 15009KT 10/M00 A3023 RMK A01 T01011003  RH  049%=      5-min Rain = 0
KTH1 150003Z 14008KT 10/M00 A3023 RMK A01 T01011002  RH  049%=      5-min Rain = 0
KTH1 150004Z 14008KT 10/M00 A3023 RMK A01 T01001001  RH  049%=      5-min Rain = 0
KTH1 150005Z 15008KT 10/M00 A3023 RMK A01 T00991001  RH  049%=      5-min Rain = 0
KTH1 150006Z 15009KT 10/M00 A3023 RMK A01 T00991001  RH  050%=      5-min Rain = 0
KTH1 150007Z 14009KT 10/M00 A3023 RMK A01 T00991002  RH  050%=      5-min Rain = 0
KTH1 150008Z 14009KT 10/M00 A3023 RMK A01 T00981002  RH  050%=      5-min Rain = 0
KTH1 150009Z 14009KT 10/M00 A3023 RMK A01 T00981001  RH  050%=      5-min Rain = 0
KTH1 150010Z 15008KT 10/M00 A3023 RMK A01 T00981001  RH  050%=      5-min Rain = 0
KTH1 150011Z 15007KT 10/M00 A3023 RMK A01 T00971001  RH  051%=      5-min Rain = 0
KTH1 150012Z 14009KT 10/M00 A3023 RMK A01 T00971001  RH  051%=      5-min Rain = 0
KTH1 150013Z 14008KT 10/M00 A3023 RMK A01 T00961001  RH  051%=      5-min Rain = 0
KTH1 150014Z 14008KT 10/M00 A3023 RMK A01 T00961001  RH  051%=      5-min Rain = 0
KTH1 150015Z 14007KT 10/M00 A3023 RMK A01 T00951001  RH  051%=      5-min Rain = 0
KTH1 150016Z 14006KT 10/00 A3023 RMK A01 T009500-0  RH  052%=      5-min Rain = 0
KTH1 150017Z 14008KT 09/00 A3023 RMK A01 T009400-0  RH  052%=      5-min Rain = 0
KTH1 150018Z 14007KT 09/M00 A3023 RMK A01 T00931001  RH  052%=      5-min Rain = 0
KTH1 150019Z 15007KT 09/00 A3023 RMK A01 T009200-0  RH  052%=      5-min Rain = 0
KTH1 150020Z 14008KT 09/00 A3023 RMK A01 T009200-0  RH  053%=      5-min Rain = 0
KTH1 150021Z 15007KT 09/M00 A3023 RMK A01 T00911001  RH  053%=      5-min Rain = 0
KTH1 150022Z 15007KT 09/M00 A3023 RMK A01 T00901001  RH  053%=      5-min Rain = 0
KTH1 150023Z 15007KT 09/M00 A3023 RMK A01 T00901001  RH  053%=      5-min Rain = 0
KTH1 150024Z 15006KT 09/M00 A3023 RMK A01 T00901001  RH  053%=      5-min Rain = 0
KTH1 150025Z 15007KT 09/00 A3023 RMK A01 T008900-0  RH  053%=      5-min Rain = 0
KTH1 150026Z 15007KT 09/M00 A3023 RMK A01 T00881001  RH  054%=      5-min Rain = 0
KTH1 150027Z 15007KT 09/M00 A3023 RMK A01 T00881001  RH  054%=      5-min Rain = 0
KTH1 150028Z 15007KT 09/M00 A3023 RMK A01 T00871001  RH  054%=      5-min Rain = 0
KTH1 150029Z 15007KT 09/M00 A3023 RMK A01 T00871001  RH  054%=      5-min Rain = 0
KTH1 150030Z 15007KT 09/M00 A3023 RMK A01 T00861001  RH  054%=      5-min Rain = 0
KTH1 150031Z 15007KT 09/M00 A3023 RMK A01 T00861001  RH  054%=      5-min Rain = 0
KTH1 150032Z 15007KT 09/M00 A3023 RMK A01 T00861001  RH  054%=      5-min Rain = 0
KTH1 150033Z 15006KT 09/M00 A3023 RMK A01 T00851001  RH  055%=      5-min Rain = 0
KTH1 150034Z 15006KT 08/M00 A3023 RMK A01 T00841001  RH  055%=      5-min Rain = 0
KTH1 150035Z 15006KT 08/M00 A3023 RMK A01 T00841001  RH  055%=      5-min Rain = 0
KTH1 150036Z 15006KT 08/M00 A3023 RMK A01 T00831001  RH  056%=      5-min Rain = 0
KTH1 150037Z 15006KT 08/M00 A3023 RMK A01 T00821001  RH  056%=      5-min Rain = 0
KTH1 150038Z 15006KT 08/M00 A3023 RMK A01 T00811002  RH  056%=      5-min Rain = 0
KTH1 150039Z 15005KT 08/M00 A3023 RMK A01 T00801002  RH  056%=      5-min Rain = 0
KTH1 150040Z 15005KT 08/M00 A3023 RMK A01 T00801002  RH  056%=      5-min Rain = 0
KTH1 150041Z 15005KT 08/M00 A3023 RMK A01 T00801002  RH  056%=      5-min Rain = 0
KTH1 150042Z 15006KT 08/M00 A3023 RMK A01 T00791002  RH  056%=      5-min Rain = 0
KTH1 150043Z 15005KT 08/M00 A3023 RMK A01 T00781002  RH  057%=      5-min Rain = 0
KTH1 150044Z 15005KT 08/M00 A3023 RMK A01 T00771002  RH  057%=      5-min Rain = 0
KTH1 150045Z 15006KT 08/M00 A3023 RMK A01 T00771002  RH  058%=      5-min Rain = 0
KTH1 150046Z 15005KT 08/M00 A3023 RMK A01 T00761002  RH  058%=      5-min Rain = 0
KTH1 150047Z 15006KT 08/M00 A3023 RMK A01 T00751001  RH  058%=      5-min Rain = 0
KTH1 150048Z 15006KT 08/M00 A3023 RMK A01 T00751001  RH  059%=      5-min Rain = 0
KTH1 150049Z 15006KT 07/M00 A3023 RMK A01 T00741002  RH  059%=      5-min Rain = 0
KTH1 150050Z 15006KT 07/M00 A3023 RMK A01 T00731002  RH  059%=      5-min Rain = 0
KTH1 150051Z 15006KT 07/M00 A3023 RMK A01 T00731002  RH  059%=      5-min Rain = 0
KTH1 150052Z 15006KT 07/M00 A3024 RMK A01 T00731001  RH  059%=      5-min Rain = 0
KTH1 150053Z 15006KT 07/M00 A3024 RMK A01 T00731001  RH  059%=      5-min Rain = 0
KTH1 150054Z 15005KT 07/M00 A3024 RMK A01 T00721002  RH  059%=      5-min Rain = 0
KTH1 150055Z 16006KT 07/M00 A3024 RMK A01 T00721002  RH  059%=      5-min Rain = 0
KTH1 150056Z 16006KT 07/M00 A3024 RMK A01 T00721002  RH  060%=      5-min Rain = 0
KTH1 150057Z 15006KT 07/M00 A3023 RMK A01 T00721002  RH  060%=      5-min Rain = 0
KTH1 150058Z 15006KT 07/M00 A3023 RMK A01 T00711001  RH  060%=      5-min Rain = 0
KTH1 150059Z 15007KT 07/M00 A3023 RMK A01 T00701002  RH  060%=      5-min Rain = 0
KTH1 150100Z 15006KT 07/M00 A3023 RMK A01 T00701001  RH  060%=      5-min Rain = 0
KTH1 150101Z 15006KT 07/M00 A3023 RMK A01 T00691001  RH  061%=      5-min Rain = 0
KTH1 150102Z 15006KT 07/M00 A3024 RMK A01 T00691001  RH  061%=      5-min Rain = 0
KTH1 150103Z 16006KT 07/M00 A3024 RMK A01 T00691001  RH  061%=      5-min Rain = 0
KTH1 150104Z 15006KT 07/M00 A3024 RMK A01 T00681001  RH  061%=      5-min Rain = 0
KTH1 150105Z 15006KT 07/00 A3024 RMK A01 T006800-0  RH  062%=      5-min Rain = 0
KTH1 150106Z 15007KT 07/M00 A3023 RMK A01 T00671001  RH  062%=      5-min Rain = 0
KTH1 150107Z 16007KT 07/M00 A3023 RMK A01 T00661001  RH  062%=      5-min Rain = 0
KTH1 150108Z 16006KT 07/00 A3023 RMK A01 T006600-0  RH  062%=      5-min Rain = 0
KTH1 150109Z 15006KT 07/00 A3023 RMK A01 T006600-0  RH  063%=      5-min Rain = 0
KTH1 150110Z 15007KT 07/00 A3024 RMK A01 T006600-0  RH  063%=      5-min Rain = 0
KTH1 150111Z 15007KT 07/00 A3023 RMK A01 T006500-0  RH  063%=      5-min Rain = 0
KTH1 150112Z 15007KT 07/00 A3023 RMK A01 T006500-0  RH  063%=      5-min Rain = 0
KTH1 150113Z 15007KT 07/00 A3023 RMK A01 T00650000  RH  063%=      5-min Rain = 0
KTH1 150114Z 15007KT 07/00 A3023 RMK A01 T00650001  RH  063%=      5-min Rain = 0
KTH1 150115Z 15007KT 07/00 A3023 RMK A01 T00650001  RH  063%=      5-min Rain = 0
KTH1 150116Z 15007KT 07/00 A3023 RMK A01 T00650001  RH  063%=      5-min Rain = 0
KTH1 150117Z 15007KT 07/00 A3023 RMK A01 T00650001  RH  064%=      5-min Rain = 0
KTH1 150118Z 15007KT 06/00 A3023 RMK A01 T00640000  RH  064%=      5-min Rain = 0
KTH1 150119Z 15007KT 06/00 A3023 RMK A01 T00640000  RH  064%=      5-min Rain = 0
KTH1 150120Z 15007KT 06/00 A3023 RMK A01 T00640000  RH  064%=      5-min Rain = 0
KTH1 150121Z 15007KT 06/00 A3023 RMK A01 T00640001  RH  064%=      5-min Rain = 0
KTH1 150122Z 15007KT 06/00 A3023 RMK A01 T00640001  RH  064%=      5-min Rain = 0
KTH1 150123Z 15008KT 06/00 A3023 RMK A01 T00640001  RH  064%=      5-min Rain = 0
KTH1 150124Z 15008KT 06/00 A3023 RMK A01 T00640001  RH  064%=      5-min Rain = 0
KTH1 150125Z 15007KT 06/00 A3023 RMK A01 T00640001  RH  064%=      5-min Rain = 0
KTH1 150126Z 15007KT 06/00 A3023 RMK A01 T00640002  RH  064%=      5-min Rain = 0
KTH1 150127Z 15007KT 06/00 A3023 RMK A01 T00630001  RH  064%=      5-min Rain = 0
KTH1 150128Z 15007KT 06/00 A3023 RMK A01 T00630001  RH  065%=      5-min Rain = 0
KTH1 150129Z 15007KT 06/00 A3023 RMK A01 T00630002  RH  065%=      5-min Rain = 0
KTH1 150130Z 15007KT 06/00 A3023 RMK A01 T00630002  RH  065%=      5-min Rain = 0
KTH1 150131Z 15007KT 06/00 A3023 RMK A01 T00620002  RH  065%=      5-min Rain = 0
KTH1 150132Z 15007KT 06/00 A3023 RMK A01 T00620002  RH  065%=      5-min Rain = 0
KTH1 150133Z 15006KT 06/00 A3023 RMK A01 T00620002  RH  065%=      5-min Rain = 0
KTH1 150134Z 15006KT 06/00 A3023 RMK A01 T00620002  RH  065%=      5-min Rain = 0
KTH1 150135Z 15006KT 06/00 A3023 RMK A01 T00610002  RH  066%=      5-min Rain = 0
KTH1 150136Z 15006KT 06/00 A3023 RMK A01 T00610002  RH  066%=      5-min Rain = 0
KTH1 150137Z 15006KT 06/00 A3023 RMK A01 T00610002  RH  066%=      5-min Rain = 0
KTH1 150138Z 15006KT 06/00 A3023 RMK A01 T00600002  RH  066%=      5-min Rain = 0
KTH1 150139Z 15006KT 06/00 A3023 RMK A01 T00600002  RH  066%=      5-min Rain = 0
KTH1 150140Z 15007KT 06/00 A3023 RMK A01 T00600002  RH  066%=      5-min Rain = 0
KTH1 150141Z 15007KT 06/00 A3023 RMK A01 T00600002  RH  066%=      5-min Rain = 0
KTH1 150142Z 15007KT 06/00 A3023 RMK A01 T00600002  RH  066%=      5-min Rain = 0
KTH1 150143Z 15007KT 06/00 A3023 RMK A01 T00600002  RH  067%=      5-min Rain = 0
KTH1 150144Z 15006KT 06/00 A3023 RMK A01 T00600003  RH  067%=      5-min Rain = 0
KTH1 150145Z 15007KT 06/00 A3023 RMK A01 T00590002  RH  067%=      5-min Rain = 0
KTH1 150146Z 15007KT 06/00 A3023 RMK A01 T00590002  RH  067%=      5-min Rain = 0
KTH1 150147Z 15006KT 06/00 A3023 RMK A01 T00590002  RH  067%=      5-min Rain = 0
KTH1 150148Z 15007KT 06/00 A3023 RMK A01 T00590002  RH  067%=      5-min Rain = 0
KTH1 150149Z 15007KT 06/00 A3023 RMK A01 T00590002  RH  067%=      5-min Rain = 0
KTH1 150150Z 15008KT 06/00 A3023 RMK A01 T00590002  RH  067%=      5-min Rain = 0
KTH1 150151Z 15006KT 06/00 A3023 RMK A01 T00580002  RH  067%=      5-min Rain = 0
KTH1 150152Z 15006KT 06/00 A3023 RMK A01 T00580002  RH  067%=      5-min Rain = 0
KTH1 150153Z 15007KT 06/00 A3023 RMK A01 T00580002  RH  067%=      5-min Rain = 0
KTH1 150154Z 15007KT 06/00 A3023 RMK A01 T00580002  RH  067%=      5-min Rain = 0
KTH1 150155Z 15007KT 06/00 A3023 RMK A01 T00580002  RH  067%=      5-min Rain = 0
KTH1 150156Z 15008KT 06/00 A3023 RMK A01 T00580002  RH  067%=      5-min Rain = 0
KTH1 150157Z 15007KT 06/00 A3023 RMK A01 T00580003  RH  067%=      5-min Rain = 0
KTH1 150158Z 15007KT 06/00 A3023 RMK A01 T00580002  RH  068%=      5-min Rain = 0
KTH1 150159Z 15006KT 06/00 A3023 RMK A01 T00570002  RH  068%=      5-min Rain = 0
KTH1 150200Z 15007KT 06/00 A3023 RMK A01 T00580003  RH  068%=      5-min Rain = 0
KTH1 150201Z 15007KT 06/00 A3023 RMK A01 T00570003  RH  068%=      5-min Rain = 0
KTH1 150202Z 15007KT 06/00 A3023 RMK A01 T00560003  RH  068%=      5-min Rain = 0
KTH1 150203Z 15007KT 06/00 A3023 RMK A01 T00560003  RH  069%=      5-min Rain = 0
KTH1 150204Z 15007KT 06/00 A3023 RMK A01 T00560003  RH  069%=      5-min Rain = 0
KTH1 150205Z 15007KT 06/00 A3023 RMK A01 T00560003  RH  069%=      5-min Rain = 0
KTH1 150206Z 15007KT 06/00 A3023 RMK A01 T00560003  RH  069%=      5-min Rain = 0
KTH1 150207Z 15006KT 06/00 A3023 RMK A01 T00560003  RH  069%=      5-min Rain = 0
KTH1 150208Z 15006KT 06/00 A3023 RMK A01 T00560003  RH  069%=      5-min Rain = 0
KTH1 150209Z 15007KT 06/00 A3023 RMK A01 T00560003  RH  069%=      5-min Rain = 0
KTH1 150210Z 15006KT 06/00 A3023 RMK A01 T00560003  RH  069%=      5-min Rain = 0
KTH1 150211Z 15006KT 06/00 A3023 RMK A01 T00560003  RH  069%=      5-min Rain = 0
KTH1 150212Z 15007KT 06/00 A3023 RMK A01 T00560003  RH  069%=      5-min Rain = 0
KTH1 150213Z 15006KT 06/00 A3023 RMK A01 T00560003  RH  068%=      5-min Rain = 0
KTH1 150214Z 15006KT 06/00 A3023 RMK A01 T00560003  RH  068%=      5-min Rain = 0
KTH1 150215Z 14006KT 06/00 A3023 RMK A01 T00560003  RH  069%=      5-min Rain = 0
KTH1 150216Z 14007KT 06/00 A3023 RMK A01 T00570003  RH  068%=      5-min Rain = 0
KTH1 150217Z 15006KT 06/00 A3023 RMK A01 T00570003  RH  069%=      5-min Rain = 0
KTH1 150218Z 14006KT 06/00 A3023 RMK A01 T00560003  RH  069%=      5-min Rain = 0
KTH1 150219Z 14007KT 06/00 A3023 RMK A01 T00560003  RH  069%=      5-min Rain = 0
KTH1 150220Z 15006KT 06/00 A3023 RMK A01 T00560003  RH  069%=      5-min Rain = 0
KTH1 150221Z 14006KT 06/00 A3023 RMK A01 T00560003  RH  069%=      5-min Rain = 0
KTH1 150222Z 15006KT 06/00 A3023 RMK A01 T00570004  RH  069%=      5-min Rain = 0
KTH1 150223Z 14006KT 06/00 A3023 RMK A01 T00560003  RH  069%=      5-min Rain = 0
KTH1 150224Z 14006KT 06/00 A3023 RMK A01 T00560004  RH  069%=      5-min Rain = 0
KTH1 150225Z 14006KT 06/00 A3023 RMK A01 T00560004  RH  069%=      5-min Rain = 0
KTH1 150226Z 14006KT 06/00 A3023 RMK A01 T00550003  RH  069%=      5-min Rain = 0
KTH1 150227Z 14006KT 06/00 A3023 RMK A01 T00550004  RH  070%=      5-min Rain = 0
KTH1 150228Z 14006KT 05/00 A3023 RMK A01 T00540004  RH  070%=      5-min Rain = 0
KTH1 150229Z 14006KT 05/00 A3023 RMK A01 T00540004  RH  070%=      5-min Rain = 0
KTH1 150230Z 14005KT 05/00 A3023 RMK A01 T00540004  RH  070%=      5-min Rain = 0
KTH1 150231Z 14006KT 05/00 A3023 RMK A01 T00530004  RH  071%=      5-min Rain = 0
KTH1 150232Z 14006KT 05/00 A3023 RMK A01 T00530004  RH  071%=      5-min Rain = 0
KTH1 150233Z 14006KT 05/00 A3023 RMK A01 T00530004  RH  071%=      5-min Rain = 0
KTH1 150234Z 14005KT 05/00 A3023 RMK A01 T00520004  RH  071%=      5-min Rain = 0
KTH1 150235Z 14006KT 05/00 A3023 RMK A01 T00520004  RH  071%=      5-min Rain = 0
KTH1 150236Z 14005KT 05/00 A3023 RMK A01 T00520004  RH  071%=      5-min Rain = 0
KTH1 150237Z 14005KT 05/00 A3023 RMK A01 T00510004  RH  072%=      5-min Rain = 0
KTH1 150238Z 14006KT 05/00 A3023 RMK A01 T00510004  RH  072%=      5-min Rain = 0
KTH1 150239Z 14005KT 05/00 A3023 RMK A01 T00510004  RH  072%=      5-min Rain = 0
KTH1 150240Z 14005KT 05/00 A3023 RMK A01 T00500004  RH  072%=      5-min Rain = 0
KTH1 150241Z 14005KT 05/00 A3023 RMK A01 T00500004  RH  072%=      5-min Rain = 0
KTH1 150242Z 14005KT 05/00 A3023 RMK A01 T00490004  RH  072%=      5-min Rain = 0
KTH1 150243Z 14005KT 05/00 A3023 RMK A01 T00490004  RH  072%=      5-min Rain = 0
KTH1 150244Z 14005KT 05/00 A3023 RMK A01 T00490004  RH  073%=      5-min Rain = 0
KTH1 150245Z 14006KT 05/00 A3023 RMK A01 T00480004  RH  073%=      5-min Rain = 0
KTH1 150246Z 14006KT 05/00 A3023 RMK A01 T00480004  RH  073%=      5-min Rain = 0
KTH1 150247Z 14006KT 05/00 A3023 RMK A01 T00480004  RH  073%=      5-min Rain = 0
KTH1 150248Z 14007KT 05/00 A3023 RMK A01 T00480003  RH  073%=      5-min Rain = 0
KTH1 150249Z 14007KT 05/00 A3023 RMK A01 T00480004  RH  073%=      5-min Rain = 0
KTH1 150250Z 14008KT 05/00 A3023 RMK A01 T00480003  RH  073%=      5-min Rain = 0
KTH1 150251Z 14007KT 05/00 A3023 RMK A01 T00490004  RH  073%=      5-min Rain = 0
KTH1 150252Z 15007KT 05/00 A3023 RMK A01 T00500004  RH  072%=      5-min Rain = 0
KTH1 150253Z 14007KT 05/00 A3023 RMK A01 T00500004  RH  072%=      5-min Rain = 0
KTH1 150254Z 15006KT 05/00 A3023 RMK A01 T00500004  RH  072%=      5-min Rain = 0
KTH1 150255Z 14006KT 05/00 A3023 RMK A01 T00500004  RH  072%=      5-min Rain = 0
KTH1 150256Z 14007KT 05/00 A3023 RMK A01 T00510004  RH  072%=      5-min Rain = 0
KTH1 150257Z 14007KT 05/00 A3023 RMK A01 T00510004  RH  072%=      5-min Rain = 0
KTH1 150258Z 14006KT 05/00 A3023 RMK A01 T00500004  RH  072%=      5-min Rain = 0
KTH1 150259Z 14007KT 05/00 A3023 RMK A01 T00510004  RH  072%=      5-min Rain = 0
KTH1 150300Z 14007KT 05/00 A3023 RMK A01 T00510004  RH  072%=      5-min Rain = 0
KTH1 150301Z 14009KT 05/00 A3023 RMK A01 T00510004  RH  072%=      5-min Rain = 0
KTH1 150302Z 15008KT 05/01 A3023 RMK A01 T00510005  RH  072%=      5-min Rain = 0
KTH1 150303Z 15009KT 05/01 A3023 RMK A01 T00520005  RH  072%=      5-min Rain = 0
KTH1 150304Z 14009KT 05/01 A3023 RMK A01 T00520005  RH  072%=      5-min Rain = 0
KTH1 150305Z 14009KT 05/01 A3023 RMK A01 T00530005  RH  071%=      5-min Rain = 0
KTH1 150306Z 15009KT 05/01 A3023 RMK A01 T00530005  RH  071%=      5-min Rain = 0
KTH1 150307Z 14009KT 05/01 A3023 RMK A01 T00540005  RH  071%=      5-min Rain = 0
KTH1 150308Z 14008KT 05/01 A3023 RMK A01 T00540006  RH  071%=      5-min Rain = 0
KTH1 150309Z 14008KT 05/01 A3023 RMK A01 T00540006  RH  071%=      5-min Rain = 0
KTH1 150310Z 14009KT 05/01 A3023 RMK A01 T00540006  RH  071%=      5-min Rain = 0
KTH1 150311Z 14008KT 05/01 A3023 RMK A01 T00540006  RH  071%=      5-min Rain = 0
KTH1 150312Z 14008KT 05/01 A3023 RMK A01 T00540006  RH  071%=      5-min Rain = 0
KTH1 150313Z 15008KT 05/01 A3023 RMK A01 T00540006  RH  071%=      5-min Rain = 0
KTH1 150314Z 14009KT 05/01 A3023 RMK A01 T00540006  RH  071%=      5-min Rain = 0
KTH1 150315Z 14008KT 05/01 A3023 RMK A01 T00540006  RH  071%=      5-min Rain = 0
KTH1 150316Z 14008KT 05/01 A3023 RMK A01 T00540006  RH  071%=      5-min Rain = 0
KTH1 150317Z 14009KT 06/01 A3023 RMK A01 T00550007  RH  071%=      5-min Rain = 0
KTH1 150318Z 14009KT 06/01 A3023 RMK A01 T00550007  RH  071%=      5-min Rain = 0
KTH1 150319Z 14008KT 06/01 A3023 RMK A01 T00550007  RH  071%=      5-min Rain = 0
KTH1 150320Z 15008KT 06/01 A3023 RMK A01 T00550007  RH  071%=      5-min Rain = 0
KTH1 150321Z 14008KT 05/01 A3023 RMK A01 T00540007  RH  071%=      5-min Rain = 0
KTH1 150322Z 14008KT 05/01 A3023 RMK A01 T00540007  RH  072%=      5-min Rain = 0
KTH1 150323Z 14008KT 05/01 A3023 RMK A01 T00540007  RH  072%=      5-min Rain = 0
KTH1 150324Z 14009KT 05/01 A3023 RMK A01 T00540007  RH  072%=      5-min Rain = 0
KTH1 150325Z 14008KT 05/01 A3023 RMK A01 T00540007  RH  072%=      5-min Rain = 0
KTH1 150326Z 14009KT 05/01 A3023 RMK A01 T00540007  RH  072%=      5-min Rain = 0
KTH1 150327Z 14009KT 05/01 A3023 RMK A01 T00540007  RH  072%=      5-min Rain = 0
KTH1 150328Z 15009KT 05/01 A3023 RMK A01 T00540008  RH  072%=      5-min Rain = 0
KTH1 150329Z 14008KT 05/01 A3023 RMK A01 T00540008  RH  072%=      5-min Rain = 0
KTH1 150330Z 14007KT 05/01 A3023 RMK A01 T00530007  RH  072%=      5-min Rain = 0
KTH1 150331Z 14009KT 05/01 A3023 RMK A01 T00530008  RH  073%=      5-min Rain = 0
KTH1 150332Z 14008KT 05/01 A3023 RMK A01 T00520008  RH  073%=      5-min Rain = 0
KTH1 150333Z 14009KT 05/01 A3023 RMK A01 T00530008  RH  073%=      5-min Rain = 0
KTH1 150334Z 14007KT 05/01 A3023 RMK A01 T00530008  RH  073%=      5-min Rain = 0
KTH1 150335Z 14008KT 05/01 A3023 RMK A01 T00520008  RH  073%=      5-min Rain = 0
KTH1 150336Z 15008KT 05/01 A3023 RMK A01 T00520008  RH  073%=      5-min Rain = 0
KTH1 150337Z 14009KT 05/01 A3023 RMK A01 T00520008  RH  073%=      5-min Rain = 0
KTH1 150338Z 14009KT 05/01 A3023 RMK A01 T00520008  RH  073%=      5-min Rain = 0
KTH1 150339Z 15008KT 05/01 A3023 RMK A01 T00520008  RH  074%=      5-min Rain = 0
KTH1 150340Z 14008KT 05/01 A3023 RMK A01 T00510008  RH  074%=      5-min Rain = 0
KTH1 150341Z 14007KT 05/01 A3023 RMK A01 T00510008  RH  074%=      5-min Rain = 0
KTH1 150342Z 14009KT 05/01 A3023 RMK A01 T00500008  RH  074%=      5-min Rain = 0
KTH1 150343Z 14008KT 05/01 A3023 RMK A01 T00500008  RH  075%=      5-min Rain = 0
KTH1 150344Z 15010KT 05/01 A3022 RMK A01 T00490008  RH  075%=      5-min Rain = 0
KTH1 150345Z 14009KT 05/01 A3022 RMK A01 T00490008  RH  075%=      5-min Rain = 0
KTH1 150346Z 15010KT 05/01 A3022 RMK A01 T00490009  RH  075%=      5-min Rain = 0
KTH1 150347Z 15008KT 05/01 A3022 RMK A01 T00490009  RH  075%=      5-min Rain = 0
KTH1 150348Z 15011KT 05/01 A3022 RMK A01 T00480008  RH  075%=      5-min Rain = 0
KTH1 150349Z 15011KT 05/01 A3022 RMK A01 T00480009  RH  076%=      5-min Rain = 0
KTH1 150350Z 15009KT 05/01 A3022 RMK A01 T00490009  RH  076%=      5-min Rain = 0
KTH1 150351Z 15009KT 05/01 A3022 RMK A01 T00490010  RH  076%=      5-min Rain = 0
KTH1 150352Z 15011KT 05/01 A3022 RMK A01 T00490010  RH  076%=      5-min Rain = 0
KTH1 150353Z 15010KT 05/01 A3022 RMK A01 T00490010  RH  076%=      5-min Rain = 0
KTH1 150354Z 15010KT 05/01 A3022 RMK A01 T00490010  RH  076%=      5-min Rain = 0
KTH1 150355Z 15011KT 05/01 A3022 RMK A01 T00490011  RH  076%=      5-min Rain = 0
KTH1 150356Z 15010KT 05/01 A3022 RMK A01 T00490011  RH  076%=      5-min Rain = 0
KTH1 150357Z 15011KT 05/01 A3022 RMK A01 T00500012  RH  076%=      5-min Rain = 0
KTH1 150358Z 15011KT 05/01 A3022 RMK A01 T00500012  RH  076%=      5-min Rain = 0
KTH1 150359Z 15011KT 05/01 A3022 RMK A01 T00510012  RH  076%=      5-min Rain = 0
KTH1 150400Z 15012KT 05/01 A3022 RMK A01 T00510013  RH  076%=      5-min Rain = 0
KTH1 150401Z 15010KT 05/01 A3022 RMK A01 T00520013  RH  076%=      5-min Rain = 0
KTH1 150402Z 15011KT 05/01 A3022 RMK A01 T00520013  RH  076%=      5-min Rain = 0
KTH1 150403Z 15010KT 05/01 A3023 RMK A01 T00520013  RH  076%=      5-min Rain = 0
KTH1 150404Z 15011KT 05/01 A3022 RMK A01 T00520013  RH  076%=      5-min Rain = 0
KTH1 150405Z 15011KT 05/01 A3022 RMK A01 T00530014  RH  076%=      5-min Rain = 0
KTH1 150406Z 15012KT 05/01 A3022 RMK A01 T00530014  RH  076%=      5-min Rain = 0
KTH1 150407Z 15011KT 05/01 A3022 RMK A01 T00530014  RH  076%=      5-min Rain = 0
KTH1 150408Z 15011KT 05/01 A3022 RMK A01 T00530014  RH  076%=      5-min Rain = 0
KTH1 150409Z 15010KT 05/01 A3022 RMK A01 T00530014  RH  076%=      5-min Rain = 0
KTH1 150410Z 15010KT 05/02 A3022 RMK A01 T00530015  RH  076%=      5-min Rain = 0
KTH1 150411Z 15010KT 05/02 A3022 RMK A01 T00530015  RH  076%=      5-min Rain = 0
KTH1 150412Z 15011KT 05/02 A3022 RMK A01 T00530015  RH  076%=      5-min Rain = 0
KTH1 150413Z 15010KT 05/02 A3022 RMK A01 T00530015  RH  076%=      5-min Rain = 0
KTH1 150414Z 15011KT 05/02 A3022 RMK A01 T00530015  RH  076%=      5-min Rain = 0
KTH1 150415Z 15012KT 05/02 A3022 RMK A01 T00530015  RH  076%=      5-min Rain = 0
KTH1 150416Z 15011KT 05/02 A3022 RMK A01 T00530015  RH  076%=      5-min Rain = 0
KTH1 150417Z 15012KT 05/02 A3022 RMK A01 T00530015  RH  076%=      5-min Rain = 0
KTH1 150418Z 15009KT 05/02 A3022 RMK A01 T00530015  RH  076%=      5-min Rain = 0
KTH1 150419Z 15010KT 05/02 A3022 RMK A01 T00530015  RH  076%=      5-min Rain = 0
KTH1 150420Z 15012KT 05/02 A3022 RMK A01 T00530016  RH  077%=      5-min Rain = 0
KTH1 150421Z 15011KT 05/02 A3022 RMK A01 T00530016  RH  077%=      5-min Rain = 0
KTH1 150422Z 15010G15KT 05/02 A3022 RMK A01 T00540016  RH  076%=      5-min Rain = 0
KTH1 150423Z 15012KT 05/02 A3022 RMK A01 T00540016  RH  076%=      5-min Rain = 0
KTH1 150424Z 15011KT 05/02 A3022 RMK A01 T00540016  RH  077%=      5-min Rain = 0
KTH1 150425Z 15011KT 05/02 A3022 RMK A01 T00540016  RH  076%=      5-min Rain = 0
KTH1 150426Z 15013KT 05/02 A3022 RMK A01 T00540016  RH  076%=      5-min Rain = 0
KTH1 150427Z 15012KT 05/02 A3021 RMK A01 T00540016  RH  077%=      5-min Rain = 0
KTH1 150428Z 15012KT 05/02 A3021 RMK A01 T00540016  RH  077%=      5-min Rain = 0
KTH1 150429Z 15011KT 05/02 A3021 RMK A01 T00540016  RH  076%=      5-min Rain = 0
KTH1 150430Z 15011KT 05/02 A3021 RMK A01 T00540016  RH  077%=      5-min Rain = 0
KTH1 150431Z 15012KT 05/02 A3021 RMK A01 T00540016  RH  077%=      5-min Rain = 0
KTH1 150432Z 15013KT 05/02 A3021 RMK A01 T00540016  RH  077%=      5-min Rain = 0
KTH1 150433Z 15011KT 05/02 A3021 RMK A01 T00540016  RH  077%=      5-min Rain = 0
KTH1 150434Z 15013KT 05/02 A3021 RMK A01 T00540016  RH  077%=      5-min Rain = 0
KTH1 150435Z 15012KT 05/02 A3021 RMK A01 T00540016  RH  077%=      5-min Rain = 0
KTH1 150436Z 15012KT 06/02 A3021 RMK A01 T00550016  RH  076%=      5-min Rain = 0
KTH1 150437Z 15011KT 06/02 A3021 RMK A01 T00550017  RH  076%=      5-min Rain = 0
KTH1 150438Z 15011KT 06/02 A3021 RMK A01 T00550017  RH  076%=      5-min Rain = 0
KTH1 150439Z 15011KT 06/02 A3021 RMK A01 T00550017  RH  076%=      5-min Rain = 0
KTH1 150440Z 15011KT 06/02 A3021 RMK A01 T00550017  RH  076%=      5-min Rain = 0
KTH1 150441Z 15012KT 06/02 A3021 RMK A01 T00550017  RH  076%=      5-min Rain = 0
KTH1 150442Z 15012G18KT 06/02 A3021 RMK A01 T00550016  RH  076%=      5-min Rain = 0
KTH1 150443Z 15013KT 06/02 A3021 RMK A01 T00550016  RH  076%=      5-min Rain = 0
KTH1 150444Z 15013G18KT 06/02 A3021 RMK A01 T00550016  RH  076%=      5-min Rain = 0
KTH1 150445Z 15013KT 06/02 A3021 RMK A01 T00560016  RH  076%=      5-min Rain = 0
KTH1 150446Z 15013KT 06/02 A3021 RMK A01 T00560016  RH  076%=      5-min Rain = 0
KTH1 150447Z 15012KT 06/02 A3021 RMK A01 T00560016  RH  076%=      5-min Rain = 0
KTH1 150448Z 15013KT 06/02 A3021 RMK A01 T00560017  RH  076%=      5-min Rain = 0
KTH1 150449Z 15012KT 06/02 A3021 RMK A01 T00560016  RH  076%=      5-min Rain = 0
KTH1 150450Z 16012KT 06/02 A302 RMK A01 T00560016  RH  075%=      5-min Rain = 0
KTH1 150451Z 15014KT 06/02 A302 RMK A01 T00560016  RH  075%=      5-min Rain = 0
KTH1 150452Z 15015KT 06/02 A302 RMK A01 T00570016  RH  075%=      5-min Rain = 0
KTH1 150453Z 15012KT 06/02 A302 RMK A01 T00570016  RH  075%=      5-min Rain = 0
KTH1 150454Z 15013KT 06/02 A302 RMK A01 T00570016  RH  075%=      5-min Rain = 0
KTH1 150455Z 15012KT 06/02 A302 RMK A01 T00570016  RH  075%=      5-min Rain = 0
KTH1 150456Z 15011KT 06/02 A302 RMK A01 T00570016  RH  075%=      5-min Rain = 0
KTH1 150457Z 15011KT 06/02 A302 RMK A01 T00560016  RH  075%=      5-min Rain = 0
KTH1 150458Z 15014KT 06/02 A302 RMK A01 T00560016  RH  075%=      5-min Rain = 0
KTH1 150459Z 16014KT 06/02 A302 RMK A01 T00560015  RH  075%=      5-min Rain = 0
KTH1 150500Z 14012KT 06/02 A302 RMK A01 T00570016  RH  075%=      5-min Rain = 0
KTH1 150501Z 15010KT 06/02 A302 RMK A01 T00580016  RH  075%=      5-min Rain = 0
KTH1 150502Z 15011KT 06/02 A302 RMK A01 T00570015  RH  075%=      5-min Rain = 0
KTH1 150503Z 15011KT 06/02 A302 RMK A01 T00570016  RH  075%=      5-min Rain = 0
KTH1 150504Z 15009KT 06/02 A302 RMK A01 T00560015  RH  075%=      5-min Rain = 0
KTH1 150505Z 15011G16KT 06/02 A302 RMK A01 T00560015  RH  075%=      5-min Rain = 0
KTH1 150506Z 15011KT 06/02 A302 RMK A01 T00560015  RH  075%=      5-min Rain = 0
KTH1 150507Z 16011KT 06/02 A3021 RMK A01 T00550015  RH  075%=      5-min Rain = 0
KTH1 150508Z 15011KT 06/02 A3021 RMK A01 T00560015  RH  075%=      5-min Rain = 0
KTH1 150509Z 15010KT 06/02 A3021 RMK A01 T00560015  RH  075%=      5-min Rain = 0
KTH1 150510Z 16009KT 06/02 A3021 RMK A01 T00560015  RH  075%=      5-min Rain = 0
KTH1 150511Z 15009KT 06/02 A302 RMK A01 T00550015  RH  075%=      5-min Rain = 0
KTH1 150512Z 16011KT 06/02 A302 RMK A01 T00550015  RH  075%=      5-min Rain = 0
KTH1 150513Z 15011KT 06/02 A302 RMK A01 T00550015  RH  076%=      5-min Rain = 0
KTH1 150514Z 16012KT 06/02 A302 RMK A01 T00550015  RH  075%=      5-min Rain = 0
KTH1 150515Z 16010KT 06/02 A302 RMK A01 T00550015  RH  075%=      5-min Rain = 0
KTH1 150516Z 15011KT 06/02 A302 RMK A01 T00550015  RH  076%=      5-min Rain = 0
KTH1 150517Z 15012KT 05/02 A302 RMK A01 T00540015  RH  076%=      5-min Rain = 0
KTH1 150518Z 15010KT 06/02 A302 RMK A01 T00550016  RH  076%=      5-min Rain = 0
KTH1 150519Z 16011KT 06/02 A302 RMK A01 T00550015  RH  076%=      5-min Rain = 0
KTH1 150520Z 16011KT 05/02 A302 RMK A01 T00540015  RH  076%=      5-min Rain = 0
KTH1 150521Z 15011KT 05/02 A302 RMK A01 T00540015  RH  076%=      5-min Rain = 0
KTH1 150522Z 16011KT 05/02 A302 RMK A01 T00530015  RH  076%=      5-min Rain = 0
KTH1 150523Z 15012KT 05/02 A302 RMK A01 T00530015  RH  076%=      5-min Rain = 0
KTH1 150524Z 15010KT 05/02 A302 RMK A01 T00530015  RH  077%=      5-min Rain = 0
KTH1 150525Z 15011KT 05/02 A302 RMK A01 T00530015  RH  077%=      5-min Rain = 0
KTH1 150526Z 15012KT 05/02 A302 RMK A01 T00520015  RH  077%=      5-min Rain = 0
KTH1 150527Z 15011KT 05/02 A302 RMK A01 T00520015  RH  077%=      5-min Rain = 0
KTH1 150528Z 15010G15KT 05/02 A302 RMK A01 T00520015  RH  077%=      5-min Rain = 0
KTH1 150529Z 16012KT 05/02 A302 RMK A01 T00520015  RH  077%=      5-min Rain = 0
KTH1 150530Z 15010KT 05/02 A302 RMK A01 T00520015  RH  077%=      5-min Rain = 0
KTH1 150531Z 16011KT 05/02 A302 RMK A01 T00520015  RH  077%=      5-min Rain = 0
KTH1 150532Z 16012KT 05/01 A302 RMK A01 T00520014  RH  077%=      5-min Rain = 0
KTH1 150533Z 16008KT 05/02 A302 RMK A01 T00520015  RH  077%=      5-min Rain = 0
KTH1 150534Z 15010KT 05/02 A302 RMK A01 T00520015  RH  077%=      5-min Rain = 0
KTH1 150535Z 15012G17KT 05/02 A302 RMK A01 T00520015  RH  077%=      5-min Rain = 0
KTH1 150536Z 16013KT 05/01 A3021 RMK A01 T00510014  RH  077%=      5-min Rain = 0
KTH1 150537Z 15010KT 05/02 A3021 RMK A01 T00520015  RH  077%=      5-min Rain = 0
KTH1 150538Z 16011KT 05/02 A3021 RMK A01 T00530015  RH  076%=      5-min Rain = 0
KTH1 150539Z 16011KT 05/01 A3021 RMK A01 T00530014  RH  076%=      5-min Rain = 0
KTH1 150540Z 16011KT 05/02 A302 RMK A01 T00530015  RH  076%=      5-min Rain = 0
KTH1 150541Z 16012KT 05/02 A302 RMK A01 T00530015  RH  076%=      5-min Rain = 0
KTH1 150542Z 16012KT 05/02 A302 RMK A01 T00530015  RH  076%=      5-min Rain = 0
KTH1 150543Z 15010KT 05/01 A302 RMK A01 T00520014  RH  076%=      5-min Rain = 0
KTH1 150544Z 16011G16KT 05/01 A302 RMK A01 T00520014  RH  077%=      5-min Rain = 0
KTH1 150545Z 16012KT 05/01 A302 RMK A01 T00520014  RH  077%=      5-min Rain = 0
KTH1 150546Z 16013KT 05/01 A302 RMK A01 T00520014  RH  077%=      5-min Rain = 0
KTH1 150547Z 16013KT 05/01 A302 RMK A01 T00520014  RH  077%=      5-min Rain = 0
KTH1 150548Z 16011KT 05/01 A302 RMK A01 T00520014  RH  076%=      5-min Rain = 0
KTH1 150549Z 16013KT 05/01 A302 RMK A01 T00520014  RH  076%=      5-min Rain = 0
KTH1 150550Z 16011KT 05/01 A302 RMK A01 T00520014  RH  076%=      5-min Rain = 0
KTH1 150551Z 16011KT 05/01 A302 RMK A01 T00520014  RH  077%=      5-min Rain = 0
KTH1 150552Z 16011KT 05/01 A302 RMK A01 T00520014  RH  077%=      5-min Rain = 0
KTH1 150553Z 16011KT 05/01 A302 RMK A01 T00520014  RH  077%=      5-min Rain = 0
KTH1 150554Z 16011KT 05/01 A302 RMK A01 T00520014  RH  077%=      5-min Rain = 0
KTH1 150555Z 16011KT 05/01 A3019 RMK A01 T00520014  RH  077%=      5-min Rain = 0
KTH1 150556Z 15010KT 05/02 A3019 RMK A01 T00520015  RH  077%=      5-min Rain = 0
KTH1 150557Z 16011KT 05/01 A3019 RMK A01 T00520014  RH  077%=      5-min Rain = 0
KTH1 150558Z 16011KT 05/02 A3019 RMK A01 T00520015  RH  077%=      5-min Rain = 0
KTH1 150559Z 16010G15KT 05/02 A3019 RMK A01 T00520015  RH  077%=      5-min Rain = 0

Page generated in 0.0732 seconds.